GFSMA_con_mlcape_045.txt.gz
CAPE
27 54 43 0 0 0 0 0 0 0 0 0 0 0 0 0 0 0 0 0 0 0 2 9 17 16 16 0 0 0 0 0 0 0 0 0 0 4 6 0 0 1 1
77 80 43 21 1 0 0 0 0 0 0 0 0 0 0 0 0 0 0 0 0 0 6 22 21 8 17 0 0 0 0 0 0 0 0 0 1 2 1 1 4 9 4
240 116 126 42 19 0 0 0 0 0 0 0 0 0 0 0 0 0 0 0 0 0 0 26 40 16 21 0 0 0 0 0 0 0 0 0 0 0 0 0 0 1 2
209 242 81 71 18 0 0 0 0 0 0 0 0 0 0 0 0 0 0 0 0 0 0 16 25 15 14 1 0 0 0 0 0 0 0 0 0 0 0 0 0 1 2
234 185 161 80 1 0 0 0 0 0 0 0 0 0 0 0 0 0 0 0 0 0 0 0 0 0 0 0 0 0 0 0 0 0 0 0 0 0 0 0 1 3 5
41 158 195 54 0 0 0 0 0 0 0 0 0 0 0 0 0 0 0 0 0 0 0 0 0 0 0 0 0 0 0 0 0 0 0 0 0 0 0 0 0 3 8
119 258 165 60 0 0 0 0 0 0 0 0 0 0 0 0 0 0 0 0 0 0 0 0 0 0 0 0 0 0 0 0 0 0 0 0 0 0 1 4 11 9 5
70 176 61 33 0 0 0 0 0 0 0 0 0 0 0 0 0 0 0 0 0 0 0 0 0 0 0 0 0 0 0 0 0 0 0 0 0 0 1 4 4 1 1
188 137 88 31 0 0 0 0 0 0 0 0 0 0 0 0 0 0 0 0 0 0 0 0 0 0 0 0 0 0 0 0 0 0 0 0 0 0 0 0 0 0 1
194 173 96 47 3 0 0 0 0 0 0 0 0 0 0 0 0 0 0 0 0 0 0 0 0 0 0 0 0 0 0 0 0 0 0 0 0 0 0 0 0 0 1
212 162 76 25 0 0 0 0 0 0 0 0 0 0 0 0 0 0 0 0 0 0 0 0 0 0 0 0 0 0 0 0 0 0 0 0 0 0 0 0 0 0 0
147 107 0 2 0 0 0 0 0 0 0 0 0 0 0 0 0 0 0 0 0 0 0 0 0 0 0 0 0 0 0 0 0 0 0 0 0 0 0 0 0 0 0
50 38 1 0 0 0 0 0 0 0 0 0 0 0 0 0 0 0 0 0 0 0 0 0 0 0 0 0 0 0 0 0 0 0 0 0 0 0 0 0 0 0 0
35 1 0 0 0 0 0 0 0 0 0 0 0 0 0 0 0 0 0 0 0 0 0 0 0 0 0 0 0 0 0 0 0 0 0 0 0 0 0 0 0 0 0
11 0 0 0 0 0 0 0 0 0 0 0 0 0 0 0 0 0 0 0 0 0 0 0 0 0 0 0 0 0 0 0 0 0 0 0 0 0 0 0 0 0 0
1 0 0 0 0 0 0 0 0 0 0 0 0 0 0 0 0 0 0 0 0 0 0 0 0 0 0 0 0 0 0 0 0 0 0 0 0 0 0 0 0 0 0
0 0 0 0 0 0 0 0 0 0 0 0 0 0 0 0 0 0 0 0 0 0 0 0 0 0 0 0 0 0 0 0 0 0 0 0 0 0 0 0 0 0 0
0 0 0 0 0 0 0 0 0 0 0 0 0 0 0 0 0 0 0 0 0 0 0 0 0 0 0 0 0 0 0 0 0 0 0 0 0 0 0 0 0 0 0
0 0 0 0 0 0 0 0 0 0 0 0 0 0 0 0 0 0 0 0 0 0 0 0 0 0 0 0 0 0 0 0 0 0 0 0 0 0 0 0 0 0 0
0 0 0 0 0 0 0 0 0 0 0 0 0 0 0 0 0 0 0 0 0 0 0 0 0 0 0 0 0 0 0 0 0 0 0 0 0 0 0 0 0 0 0
0 0 0 0 0 0 0 0 0 0 0 0 0 0 0 0 0 0 0 0 0 0 0 0 0 0 0 0 0 0 0 0 0 0 0 0 0 0 0 0 0 0 0
0 0 0 0 0 0 0 0 0 0 0 0 0 0 0 0 0 0 0 0 0 0 0 0 0 0 0 0 0 0 0 0 0 0 0 0 0 0 0 0 0 0 0
0 0 0 0 0 0 0 0 0 0 0 0 0 0 0 0 0 0 0 0 0 0 0 0 0 0 0 0 0 0 0 0 0 0 0 0 0 0 0 0 0 0 0
0 0 0 0 0 0 0 0 0 0 0 0 0 0 0 0 0 0 0 0 0 0 0 0 0 0 0 0 0 2 0 0 0 0 0 0 0 0 0 0 0 0 0
0 0 0 0 0 0 0 0 0 0 0 0 0 0 0 0 0 0 0 0 0 0 0 0 0 0 0 0 0 0 0 0 0 0 0 0 0 0 0 0 0 0 0
0 0 0 0 0 0 0 0 0 0 0 0 0 0 0 0 0 0 0 0 0 0 0 0 0 0 0 0 0 1 0 4 0 0 0 0 0 0 0 0 0 0 0

GFSMA_con_mlcape_048.txt.gz
CAPE
0 2 0 0 0 0 0 0 0 0 0 0 0 0 0 0 0 0 0 0 0 6 12 16 12 19 11 0 2 0 0 0 0 0 0 0 2 4 0 2 4 7 5
4 2 0 0 0 0 0 0 0 0 0 0 0 0 0 0 0 0 0 0 0 0 1 4 17 25 24 2 0 0 0 0 0 0 0 0 0 0 0 0 0 1 1
19 13 6 0 0 0 0 0 0 0 0 0 0 0 0 0 0 0 0 0 0 0 0 0 41 22 36 2 0 0 0 0 0 0 0 0 0 0 0 0 0 0 0
66 69 43 34 7 0 0 0 0 0 0 0 0 0 0 0 0 0 0 0 0 0 0 17 29 16 22 2 0 0 0 0 0 0 0 0 0 0 0 0 0 0 1
150 138 82 73 28 0 0 0 0 0 0 0 0 0 0 0 0 0 0 0 0 0 0 0 0 0 0 4 2 0 0 0 0 0 0 0 0 0 0 0 0 0 1
57 121 110 69 11 0 0 0 0 0 0 0 0 0 0 0 0 0 0 0 0 0 0 0 0 0 0 0 0 0 0 0 0 0 0 0 0 0 0 0 0 0 6
14 74 57 37 2 0 0 0 0 0 0 0 0 0 0 0 0 0 0 0 0 0 0 0 0 0 0 0 0 0 0 0 0 0 0 0 0 0 0 0 0 1 3
4 56 60 39 0 0 0 0 0 0 0 0 0 0 0 0 0 0 0 0 0 0 0 0 0 0 0 0 0 0 0 0 0 0 0 0 0 0 0 0 0 0 2
0 5 10 40 0 0 0 0 0 0 0 0 0 0 0 0 0 0 0 0 0 0 0 0 0 0 0 0 0 0 0 0 0 0 0 0 0 0 0 0 0 0 1
4 0 13 23 0 0 0 0 0 0 0 0 0 0 0 0 0 0 0 0 0 0 0 0 0 0 0 0 0 0 0 0 0 0 0 0 0 0 0 0 0 0 2
5 9 54 72 25 0 0 0 0 0 0 0 0 0 0 0 0 0 0 0 0 0 0 0 0 0 0 0 0 0 0 0 0 0 0 0 0 0 0 0 0 0 0
4 29 64 66 4 0 0 0 0 0 0 0 0 0 0 0 0 0 0 0 0 0 0 0 0 0 0 0 0 0 0 0 0 0 0 0 0 0 0 0 0 0 0
18 49 54 19 4 0 0 0 0 0 0 0 0 0 0 0 0 0 0 0 0 0 0 0 0 0 0 0 0 0 0 0 0 0 0 0 0 0 0 0 0 0 0
9 41 39 9 0 0 0 0 0 0 0 0 0 0 0 0 0 0 0 0 0 0 0 0 0 0 0 0 0 0 0 0 0 0 0 0 0 0 0 0 0 0 0
26 3 8 0 0 0 0 0 0 0 0 0 0 0 0 0 0 0 0 0 0 0 0 0 0 0 0 0 0 0 0 0 0 0 0 0 0 0 0 0 0 0 0
12 1 0 0 0 0 0 0 0 0 0 0 0 0 0 0 0 0 0 0 0 0 0 0 0 0 0 0 0 0 0 0 0 0 0 0 0 0 0 0 0 0 0
35 29 8 0 0 0 0 0 0 0 0 0 0 0 0 0 0 0 0 0 0 0 0 0 0 0 0 0 0 0 0 0 0 0 0 0 0 0 0 0 0 0 0
5 11 0 0 0 0 0 0 0 0 0 0 0 0 0 0 0 0 0 0 0 0 0 0 0 0 0 0 0 0 0 0 0 0 0 0 0 0 0 0 0 0 0
0 0 0 0 0 0 0 0 0 0 0 0 0 0 0 0 0 0 0 0 0 0 0 0 0 0 0 0 0 0 0 0 0 0 0 0 0 0 0 0 0 0 0
0 0 0 0 0 0 0 0 0 0 0 0 0 0 0 0 0 0 0 0 0 0 0 0 0 0 0 0 0 0 0 0 0 0 0 0 0 0 0 0 0 0 0
0 0 0 0 0 0 0 0 0 0 0 0 0 0 0 0 0 0 0 0 0 0 0 0 0 0 0 0 0 0 0 0 0 0 0 0 0 0 0 0 0 0 0
0 0 0 0 0 0 0 0 0 0 0 0 0 0 0 0 0 0 0 0 0 0 0 0 0 0 0 0 0 0 0 0 1 0 0 0 0 0 0 0 0 0 0
0 0 0 0 0 0 0 0 0 0 0 0 0 0 0 0 0 0 0 0 0 0 0 0 0 0 0 0 0 0 0 2 1 0 0 0 0 0 0 0 0 0 0
0 0 0 0 0 0 0 0 0 0 0 0 0 0 0 0 0 0 0 0 0 0 0 0 0 0 0 0 0 0 0 0 0 0 2 2 0 0 0 0 0 0 0
0 0 0 0 0 0 0 0 0 0 0 0 0 0 0 0 0 0 0 0 0 0 0 0 0 0 0 0 0 0 0 0 0 1 4 0 0 0 0 0 0 0 0
0 0 0 0 0 0 0 0 0 0 0 0 0 0 0 0 0 0 0 0 0 0 0 0 0 0 2 0 0 0 0 1 1 3 0 0 0 0 0 0 0 0 0

GFSMA_con_mlcape_051.txt.gz
CAPE
0 0 0 0 0 0 0 0 0 0 0 0 0 0 0 0 0 0 0 0 3 6 11 22 23 12 3 4 0 0 0 0 0 0 0 1 1 0 0 0 0 1 2
0 0 0 0 0 0 0 0 0 0 0 0 0 0 0 0 0 0 0 0 0 2 5 13 24 24 5 0 0 0 0 0 0 0 0 0 0 0 0 0 0 0 0
0 0 0 0 0 0 0 0 0 0 0 0 0 0 0 0 0 0 0 0 0 0 0 6 12 18 10 2 1 0 0 0 0 0 0 0 0 0 0 0 0 0 0
0 0 0 0 0 0 0 0 0 0 0 0 0 0 0 0 0 0 0 0 0 0 0 0 0 0 21 2 1 5 0 0 0 0 0 0 0 0 0 0 0 0 0
12 15 10 13 8 2 0 0 0 0 0 0 0 0 0 0 0 0 0 0 0 0 0 0 0 0 15 48 20 18 2 0 0 0 0 0 0 0 0 0 0 0 0
68 56 51 73 35 8 0 0 0 0 0 0 0 0 0 0 0 0 0 0 0 0 0 0 0 0 2 25 12 7 5 0 0 0 0 0 0 0 0 0 0 0 0
94 147 123 58 49 21 0 0 0 0 0 0 0 0 0 0 0 0 0 0 0 0 0 0 0 0 0 0 0 0 0 1 0 0 0 0 0 0 0 0 0 0 0
1 52 86 100 81 23 0 0 0 0 0 0 0 0 0 0 0 0 0 0 0 0 0 0 0 0 0 0 0 0 0 0 0 0 0 0 0 0 0 0 0 0 0
0 0 54 82 58 0 0 0 0 0 0 0 0 0 0 0 0 0 0 0 0 0 0 0 0 0 0 0 0 0 0 0 0 0 0 0 0 0 0 0 0 0 0
0 0 0 7 34 29 0 0 0 0 0 0 0 0 0 0 0 0 0 0 0 0 0 0 0 0 0 0 0 0 0 0 0 0 0 0 0 0 0 0 0 0 0
0 0 0 0 0 3 0 0 0 0 0 0 0 0 0 0 0 0 0 0 0 0 0 0 0 0 0 0 0 0 0 0 0 0 0 0 4 0 0 0 0 0 0
0 0 0 14 15 8 0 0 0 0 0 0 0 0 0 0 0 0 0 0 0 0 0 0 0 0 0 0 0 0 0 0 0 0 0 1 12 9 9 0 0 0 0
0 0 0 2 2 0 0 0 0 0 0 0 0 0 0 0 0 0 0 0 0 0 0 0 0 0 0 0 0 0 0 0 0 0 0 0 19 26 28 19 10 1 0
0 0 1 0 2 2 28 0 0 0 0 0 0 0 0 0 0 0 0 0 0 0 0 0 0 0 0 0 0 0 0 0 0 0 0 0 7 19 23 15 13 1 0
0 0 0 1 0 0 0 0 0 0 0 0 0 0 0 0 0 0 0 0 0 0 0 0 0 0 0 0 0 0 0 0 0 0 0 0 0 3 9 10 8 0 0
0 0 0 0 0 0 0 0 0 0 0 0 0 0 0 0 0 0 0 0 0 0 0 0 0 0 0 0 0 0 0 0 0 0 0 0 0 0 0 0 0 0 0
5 1 0 0 0 0 0 0 0 0 0 0 0 0 0 0 0 0 0 0 0 0 0 0 0 0 0 0 0 0 0 0 0 0 0 0 0 0 0 0 0 0 0
1 1 0 0 0 0 0 0 0 0 0 0 0 0 0 0 0 0 0 0 0 0 0 0 0 0 0 0 0 0 0 0 0 0 0 0 0 0 0 0 0 0 0
21 13 0 0 0 0 0 0 0 0 0 0 0 0 0 0 0 0 0 0 0 0 0 0 0 0 0 0 0 0 0 0 0 0 0 0 0 0 0 0 0 0 0
43 0 0 0 0 0 0 0 0 0 0 0 0 0 0 0 0 0 0 0 0 0 0 1 1 0 0 0 0 0 0 0 0 0 0 0 0 0 0 0 0 0 0
45 0 0 0 0 0 0 0 0 0 0 0 0 0 0 0 0 0 0 0 0 0 0 0 0 0 0 0 0 0 0 0 0 0 0 0 0 0 0 0 0 0 0
4 1 0 0 1 1 0 0 0 0 0 0 0 0 0 0 0 0 0 0 0 0 0 0 0 0 0 0 0 0 0 0 0 0 0 0 0 0 0 0 0 1 0
1 0 1 0 0 0 0 0 0 0 0 0 0 0 0 0 0 0 0 0 0 0 0 0 0 0 0 0 0 0 0 0 0 0 0 0 0 0 0 0 0 0 0
0 0 0 0 0 0 0 0 0 0 0 0 0 0 0 0 0 0 0 0 0 0 0 0 0 0 0 0 0 0 0 0 0 0 0 0 0 0 0 0 0 0 3
1 1 1 1 0 0 0 0 0 0 0 0 0 0 0 0 0 0 0 0 0 0 0 0 0 0 0 0 0 0 0 1 1 0 0 0 0 0 0 0 0 0 0
1 0 1 0 0 0 0 0 0 0 0 0 0 0 0 0 0 0 0 0 0 0 0 0 0 0 0 0 0 0 0 0 2 0 0 0 0 0 0 0 0 0 0

GFSMA_con_mlcape_054.txt.gz
CAPE
2 0 0 0 0 0 0 0 0 0 0 0 0 0 0 0 0 0 0 0 0 4 22 28 29 18 4 0 0 0 0 0 0 0 0 0 0 0 0 0 0 0 0
0 2 0 0 0 0 0 0 0 0 0 0 0 0 0 0 0 0 0 0 0 0 14 38 32 26 14 10 0 0 0 0 0 0 0 0 0 0 0 0 0 0 0
5 4 0 0 0 0 0 0 0 0 0 0 0 0 0 0 0 0 0 0 0 0 4 21 23 29 12 3 3 0 0 0 0 0 0 0 0 0 0 0 0 0 0
2 2 0 0 0 0 0 0 0 0 0 0 0 0 0 0 0 0 0 0 0 0 0 0 6 11 13 7 2 0 0 0 0 0 0 0 0 0 0 0 0 0 0
3 3 1 0 0 0 0 0 0 0 0 0 0 0 0 0 0 0 0 0 0 0 0 0 0 0 0 2 3 1 4 0 0 0 0 0 0 0 0 0 0 0 0
9 14 5 2 4 0 0 0 0 0 0 0 0 0 0 0 0 0 0 0 0 0 0 0 0 0 0 0 13 8 16 18 4 0 0 0 0 0 0 0 0 0 0
23 39 32 29 14 0 1 0 0 0 0 0 0 0 0 0 0 0 0 0 0 0 0 0 0 0 0 0 17 0 1 8 24 8 0 0 0 0 0 0 0 0 0
105 110 66 105 65 0 0 0 0 0 0 0 0 0 0 0 0 0 0 0 0 0 0 0 0 0 0 0 0 0 0 0 5 8 0 0 0 0 0 0 0 0 0
14 45 59 67 46 3 10 0 0 0 0 0 0 0 0 0 0 0 0 0 0 0 0 0 0 0 0 0 0 0 0 0 0 0 0 0 0 0 0 0 0 0 0
0 0 5 32 44 28 11 1 0 0 0 0 0 0 0 0 0 0 0 0 0 0 0 0 0 0 0 0 0 0 0 0 0 0 0 0 7 3 2 1 2 0 0
0 0 0 0 0 0 15 10 0 0 0 0 0 0 0 0 0 0 0 0 0 0 0 0 0 0 0 0 0 0 0 0 0 0 0 0 7 16 29 18 15 14 13
0 0 0 0 0 0 0 0 0 0 0 0 0 0 0 0 0 0 0 0 0 0 0 0 0 0 0 0 0 0 0 0 0 0 0 0 4 16 29 30 23 20 24
0 0 0 0 0 0 0 0 2 0 0 0 0 0 0 0 0 0 0 0 0 0 0 0 0 0 0 0 0 0 0 0 0 0 0 0 1 5 6 19 20 21 26
0 0 0 0 0 0 0 2 10 0 0 0 0 0 0 0 0 0 0 0 0 0 0 0 0 0 0 0 0 0 0 0 0 0 0 0 0 0 11 11 2 15 34
0 0 0 0 0 0 1 6 1 3 0 0 0 0 0 0 0 0 0 0 0 0 0 0 0 0 0 0 0 0 0 0 0 0 0 0 0 0 6 20 34 15 14
0 0 0 0 0 3 5 3 0 0 0 0 0 0 0 0 0 0 0 0 0 0 0 0 0 0 0 0 0 0 0 0 0 0 0 0 0 0 0 6 22 37 42
0 0 0 0 0 0 0 0 0 0 1 0 0 0 0 0 0 0 0 0 0 0 0 0 0 0 0 0 0 0 0 0 0 0 0 0 0 0 0 0 0 8 20
0 0 0 0 0 0 0 0 0 0 0 0 0 0 0 0 0 0 0 0 0 0 0 0 0 0 0 0 0 0 0 0 0 0 0 0 0 0 0 0 0 0 1
0 0 0 0 2 5 0 0 1 1 0 0 0 0 0 0 0 0 0 0 0 0 0 0 0 0 0 0 0 0 0 0 0 0 0 0 0 0 0 0 0 0 0
0 0 0 0 0 0 0 0 0 1 0 0 0 0 0 0 0 0 0 0 0 0 0 0 0 0 0 0 0 0 0 0 0 0 0 0 0 0 0 0 0 0 0
0 0 0 0 1 0 0 0 0 0 1 0 0 0 0 0 0 0 0 0 0 0 0 0 0 0 0 0 0 0 0 0 0 0 0 0 0 0 0 0 0 0 0
1 1 0 1 1 1 1 0 0 1 1 2 2 1 0 0 0 0 0 0 0 0 0 0 0 0 0 0 0 0 0 0 0 0 0 0 0 0 0 0 0 0 0
2 0 0 1 1 1 0 0 0 1 2 1 1 0 1 0 0 0 0 0 0 0 0 0 0 0 0 0 0 0 0 0 0 0 1 0 0 0 0 0 0 0 0
0 0 0 1 1 1 1 0 1 1 1 1 1 0 0 0 0 0 0 0 0 0 0 0 0 0 0 0 0 0 1 1 0 0 0 0 0 0 0 0 0 0 0
0 0 1 1 0 2 0 1 0 0 0 0 0 0 0 0 0 0 0 0 0 0 0 0 0 0 0 0 0 0 0 0 0 0 0 0 0 0 0 0 0 0 0
3 2 3 1 0 1 0 0 0 0 0 0 0 0 0 0 0 0 0 0 0 0 0 0 0 0 0 0 0 0 0 0 0 0 0 0 0 0 0 0 0 0 0

GFSMA_con_mlcape_057.txt.gz
CAPE
0 0 0 0 0 0 0 0 0 0 0 0 0 0 0 0 0 0 2 0 5 12 13 12 11 3 5 4 0 0 0 0 0 0 0 0 0 0 0 0 0 0 0
0 0 0 0 0 0 0 0 0 0 0 0 0 0 0 0 0 0 0 2 0 2 12 13 14 13 9 3 6 0 0 0 0 0 0 0 0 0 0 0 0 0 0
1 0 0 0 0 0 0 0 0 0 0 0 0 0 0 0 0 0 0 0 0 0 0 12 20 19 23 1 2 0 0 0 0 0 0 0 0 0 0 0 0 0 0
6 3 0 0 0 0 0 0 0 0 0 0 0 0 0 0 0 0 0 0 0 0 0 0 10 27 20 16 6 2 0 0 0 0 0 0 0 0 0 0 0 0 0
3 6 1 0 0 0 0 0 0 0 0 0 0 0 0 0 0 0 0 0 0 0 0 0 0 15 26 17 9 2 6 0 0 0 0 0 0 0 0 0 0 0 0
15 11 7 0 0 7 0 0 0 0 0 0 0 0 0 0 0 0 0 0 0 0 0 0 0 6 18 27 10 7 9 11 4 0 0 0 0 0 0 0 0 0 0
21 19 19 8 3 3 3 2 0 0 0 0 0 0 0 0 0 0 0 0 0 0 0 0 0 0 8 23 10 1 0 0 14 11 0 0 0 0 0 0 0 0 0
31 42 35 22 25 9 4 3 0 0 0 0 0 0 0 0 0 0 0 0 0 0 0 0 0 0 0 0 0 0 0 0 0 6 28 8 0 0 0 0 0 0 0
81 69 62 71 76 37 36 20 0 0 0 0 0 0 0 0 0 0 0 0 0 0 0 0 0 0 0 0 0 0 0 0 0 0 2 18 14 14 4 6 2 1 1
63 106 100 61 70 42 40 19 1 0 0 0 0 0 0 0 0 0 0 0 0 0 0 0 0 0 0 0 0 0 0 0 0 0 0 0 9 33 33 18 9 4 5
18 20 22 23 15 46 64 35 5 0 0 0 0 0 0 0 0 0 0 0 0 0 0 0 0 0 0 0 0 0 0 0 0 0 0 0 0 2 31 39 21 20 20
0 5 1 6 5 32 37 37 49 13 0 0 0 0 0 0 0 0 0 0 0 0 0 0 0 0 0 0 0 0 0 0 0 0 0 0 0 2 4 16 27 29 33
0 0 0 0 0 0 0 0 0 3 5 4 0 0 0 0 0 0 0 0 0 0 0 0 0 0 0 0 0 0 0 0 0 0 0 0 0 0 0 0 2 10 23
0 0 0 0 0 0 0 0 0 0 0 0 0 0 0 0 2 0 0 0 0 0 0 0 0 0 0 0 0 0 0 0 0 0 0 0 0 0 0 0 0 1 7
0 0 0 0 0 0 0 0 0 0 0 0 0 0 0 0 0 0 0 0 0 0 0 0 0 0 0 0 0 0 0 0 0 0 0 0 0 0 0 0 0 0 0
0 0 0 0 0 0 0 0 0 0 0 0 0 0 0 0 0 0 0 0 0 0 0 0 0 0 0 0 0 0 0 0 0 0 0 0 0 0 0 0 0 0 0
0 0 0 0 0 0 0 0 0 1 0 0 2 1 3 2 0 0 0 0 0 0 0 0 0 0 0 0 0 0 0 0 0 0 0 0 0 0 0 0 0 0 0
0 0 0 0 0 0 0 0 0 0 0 0 2 2 2 1 0 0 0 0 0 0 0 0 0 0 0 0 0 0 0 0 0 0 0 0 0 0 0 0 0 0 0
0 0 0 0 0 0 0 0 0 0 0 1 2 2 1 2 0 0 0 0 0 0 0 0 0 0 0 0 0 0 0 0 0 0 0 0 0 0 0 0 0 0 0
0 0 0 0 0 0 0 0 0 0 1 1 2 2 1 0 0 0 0 0 0 0 0 0 0 0 0 0 0 0 0 0 0 0 0 0 0 0 0 0 0 0 0
0 0 0 0 0 0 1 1 0 0 2 1 2 1 1 0 0 0 0 0 0 0 0 0 0 0 0 0 0 0 0 0 0 0 0 0 0 0 0 0 0 0 0
0 0 0 0 1 2 0 0 0 1 2 2 2 4 1 1 0 0 0 0 0 0 0 0 0 0 0 0 0 0 0 0 0 0 0 0 0 0 0 0 0 0 0
0 0 2 5 4 4 0 0 0 1 1 2 2 2 2 0 0 0 0 0 0 0 0 0 0 0 0 0 0 0 0 0 0 0 0 0 0 0 0 0 0 0 0
1 1 1 1 0 0 0 0 0 1 1 2 2 1 0 0 0 0 0 0 0 0 0 0 0 0 0 0 0 0 0 0 0 0 0 0 0 0 0 0 0 0 0
0 0 0 0 0 0 0 0 2 0 1 1 1 1 1 1 0 0 0 0 1 0 0 0 0 0 0 0 0 0 0 0 0 0 0 0 0 0 0 0 0 0 0
0 1 2 2 1 1 2 2 0 1 3 2 3 3 1 2 2 0 0 0 0 0 0 0 0 0 0 0 0 0 0 0 0 0 0 0 0 0 0 0 0 0 0

GFSMA_con_mlcape_060.txt.gz
CAPE
62 21 26 24 35 83 43 6 0 1 0 0 0 0 0 0 0 1 2 4 16 16 12 11 4 0 4 5 4 2 0 0 0 0 0 0 0 0 0 0 0 0 0
55 27 4 0 0 23 41 7 0 0 0 0 0 0 0 0 0 1 1 3 7 17 23 20 12 7 5 0 1 0 0 0 0 0 0 0 0 0 0 0 0 0 0
48 31 4 0 0 1 0 0 0 0 0 0 0 0 0 0 0 0 2 2 0 5 15 27 15 8 8 6 0 0 0 0 0 0 0 0 0 0 0 0 0 0 0
52 29 11 1 0 0 0 0 0 0 0 0 0 0 0 0 0 0 0 0 2 1 0 17 18 23 15 2 1 0 0 0 0 0 0 0 0 0 0 0 0 0 0
46 18 6 26 18 0 0 0 0 0 0 0 0 0 0 0 0 0 0 0 0 0 1 0 1 13 19 17 2 3 3 2 0 0 0 0 0 0 0 0 0 0 0
67 30 19 53 42 1 1 0 0 0 0 0 0 0 0 0 0 0 0 0 0 0 0 0 0 0 5 2 4 9 17 19 2 0 0 0 0 0 0 0 0 0 0
87 75 66 66 55 47 45 31 6 0 0 0 0 0 0 0 0 0 0 0 0 0 0 0 0 0 1 4 14 16 17 30 32 12 1 0 0 0 0 0 0 0 0
90 88 72 62 52 89 87 67 25 16 2 0 0 0 0 0 0 0 0 0 0 0 0 0 0 0 0 16 2 3 14 13 14 25 29 9 0 0 0 0 0 0 0
153 79 81 101 95 92 131 137 98 78 68 5 0 46 64 21 44 0 0 0 0 0 0 0 0 0 0 0 0 4 8 7 0 0 0 10 23 8 1 2 1 2 0
114 108 80 131 154 154 132 170 185 158 148 122 0 0 7 10 35 11 0 0 0 0 0 0 0 0 0 0 0 0 0 0 0 0 0 0 0 1 15 27 18 8 8
84 92 101 156 192 160 145 157 135 128 148 122 95 63 0 0 0 0 0 0 0 0 0 0 0 0 0 0 0 0 0 0 0 0 0 0 0 0 0 9 23 24 19
32 40 51 83 156 87 31 8 34 169 179 144 123 87 27 0 0 0 0 0 2 0 0 0 0 0 0 0 0 0 0 0 0 0 0 0 0 0 0 0 5 20 25
6 6 25 79 50 3 0 1 12 72 109 113 126 82 53 3 0 0 0 0 0 0 0 0 0 0 0 0 0 0 0 0 0 0 0 0 0 0 0 0 0 0 4
0 0 0 8 13 4 9 44 43 41 69 79 112 111 90 61 20 0 0 0 0 0 0 0 0 0 0 0 0 0 0 0 0 0 0 0 0 0 0 0 0 0 0
0 0 0 0 18 31 31 46 45 15 44 61 67 87 118 114 15 1 0 0 1 2 0 0 0 0 0 0 0 0 0 0 0 0 0 0 0 0 0 0 0 0 0
0 0 0 0 0 6 14 24 31 18 23 26 63 57 76 62 54 4 1 0 1 3 1 0 0 0 0 0 0 0 0 0 0 0 0 0 0 0 0 0 0 0 0
0 0 0 0 0 0 0 9 4 0 4 4 74 90 50 27 4 0 1 1 0 0 0 0 0 0 0 0 0 0 0 0 0 0 0 0 0 0 0 0 0 0 0
0 0 0 0 0 0 0 0 0 1 3 11 47 74 15 12 4 0 1 1 0 0 0 0 0 0 0 0 0 0 0 0 0 0 0 0 0 0 0 0 0 0 0
1 2 3 0 0 0 0 0 0 0 2 14 17 8 0 1 0 0 1 2 1 0 0 0 0 0 0 0 0 0 0 0 0 0 0 0 0 0 0 0 0 0 0
1 1 0 0 0 0 0 0 0 0 5 0 0 0 0 1 0 1 0 1 0 0 0 0 0 0 0 0 0 0 0 0 0 0 0 0 0 0 0 0 0 0 0
0 0 0 0 0 0 0 0 2 3 1 0 1 0 0 0 0 1 1 2 3 1 1 0 0 1 0 0 0 0 0 0 0 0 0 0 0 0 0 0 0 0 0
0 0 0 0 0 1 0 0 0 2 4 0 0 0 2 1 0 0 1 0 0 1 0 1 0 1 0 0 0 0 0 0 0 0 0 0 0 0 0 0 0 0 0
0 0 0 0 0 3 4 0 0 2 0 1 1 1 1 1 0 0 0 0 0 0 0 0 0 0 0 0 0 0 0 0 0 0 0 0 0 0 0 0 0 0 0
3 5 4 4 4 4 2 0 0 0 1 0 1 1 2 2 1 0 2 1 1 0 0 0 0 0 0 0 0 0 0 0 0 0 0 0 0 0 0 0 0 0 0
36 41 41 46 22 2 0 0 0 1 1 2 1 0 1 2 4 2 0 0 0 1 1 0 0 0 0 0 0 0 0 0 0 0 0 0 0 0 0 0 0 0 0
27 0 0 0 0 0 1 0 0 1 1 3 2 3 2 2 2 0 0 0 0 2 0 0 0 0 0 0 0 0 0 0 0 0 0 0 0 0 0 0 0 0 0

GFSMA_con_mlcape_063.txt.gz
CAPE
95 111 149 98 1 6 0 0 4 0 0 0 0 1 5 17 7 1 6 7 10 13 4 7 8 4 2 0 0 0 0 0 0 0 0 0 0 0 0 0 0 0 0
138 134 122 114 79 66 15 0 18 2 0 0 0 0 1 3 11 4 4 11 9 9 0 1 4 8 2 2 0 0 0 0 1 0 0 0 0 0 0 0 0 0 0
159 198 224 231 168 115 65 40 2 0 0 0 0 0 0 1 3 12 0 3 2 8 3 4 0 0 8 6 1 0 0 0 0 0 0 0 0 0 0 0 0 0 0
124 162 143 136 112 114 78 24 0 0 1 0 0 0 0 0 0 2 16 5 0 4 0 4 5 0 4 9 5 1 0 0 0 0 0 0 0 0 0 0 0 0 0
115 133 99 89 54 42 47 25 2 3 1 0 0 0 0 0 0 0 0 0 2 1 0 0 0 7 8 0 5 5 2 0 0 0 0 0 0 0 0 0 0 0 0
89 85 91 81 33 18 13 19 3 0 1 0 0 0 0 0 0 0 0 0 0 0 0 8 0 0 4 8 5 5 9 8 3 0 0 0 0 0 0 0 0 0 0
71 60 91 127 118 38 23 35 10 0 0 0 0 0 0 0 0 0 0 0 0 0 0 0 5 0 0 0 0 10 18 20 14 5 0 0 1 0 0 0 0 0 0
130 98 112 134 158 115 103 76 68 38 2 0 0 0 0 0 0 0 0 0 0 0 0 0 0 0 7 10 0 0 2 11 13 26 17 1 1 2 1 0 0 0 0
105 143 171 152 117 182 153 158 160 113 56 5 0 31 39 13 21 0 0 0 0 0 0 0 0 0 0 0 32 5 0 0 3 10 9 7 10 10 4 5 4 1 1
88 104 92 100 159 136 127 163 181 148 131 89 44 12 80 129 86 16 0 0 0 0 0 0 0 0 0 0 0 2 0 0 0 0 0 0 0 2 10 33 32 24 13
51 75 75 49 107 180 140 201 197 178 185 83 130 131 60 66 107 58 54 0 0 0 0 0 0 0 0 0 0 0 0 0 0 0 0 0 0 0 0 0 0 2 16
23 36 46 56 39 132 153 162 160 227 191 170 102 110 93 57 32 21 6 35 6 0 0 0 0 0 0 0 0 0 0 0 0 0 0 0 0 0 0 0 0 0 1
6 15 51 69 59 52 85 50 162 162 175 128 197 111 68 87 72 24 16 0 5 0 0 0 0 0 0 2 0 0 0 0 0 0 0 0 0 0 0 0 0 0 0
0 12 59 49 61 29 36 55 51 51 45 50 106 134 86 40 93 82 15 1 18 0 2 0 0 0 0 0 0 0 0 0 0 0 0 0 0 0 0 0 0 0 0
4 27 31 49 56 67 75 54 23 5 41 36 36 51 69 79 38 75 86 52 30 6 1 0 0 0 0 0 0 0 0 0 0 0 0 0 0 0 0 0 0 0 0
10 8 21 11 14 17 24 47 21 13 29 53 51 38 45 85 109 109 97 48 8 0 8 0 0 0 0 0 0 0 0 0 0 0 0 0 0 0 0 0 0 0 0
1 0 0 0 0 0 0 11 29 20 23 28 42 49 22 53 87 117 109 65 14 1 2 0 0 0 0 0 0 0 0 0 0 0 0 0 0 0 0 0 0 0 0
0 4 2 0 0 0 1 1 0 3 9 0 3 14 7 24 35 88 101 15 1 0 0 1 0 0 0 0 0 0 0 0 0 0 0 0 0 0 0 0 0 0 0
4 5 16 6 3 1 1 0 0 1 14 12 8 16 19 30 43 9 0 0 0 0 0 1 0 0 0 0 0 0 0 0 0 0 0 0 0 0 0 0 0 0 0
2 3 3 12 13 11 17 19 21 16 12 12 14 22 38 59 22 4 0 0 0 0 3 2 1 0 0 0 0 0 0 0 0 0 0 0 0 0 0 0 0 0 0
0 5 14 10 4 2 5 4 4 5 11 14 13 28 24 11 4 4 5 0 0 2 1 2 2 1 3 3 1 0 0 0 0 0 0 0 0 0 0 0 0 0 0
2 2 0 0 0 0 0 0 0 21 2 2 7 5 3 0 0 0 0 0 0 1 2 3 2 2 1 1 1 0 0 0 0 0 0 0 0 0 0 0 0 0 0
12 5 3 1 0 0 0 0 0 0 4 12 12 6 2 0 0 0 0 0 0 0 0 1 2 1 3 0 0 0 0 0 0 0 0 0 0 0 0 0 0 0 0
36 30 26 13 14 29 4 0 0 0 5 8 9 19 18 0 0 0 1 2 3 2 0 0 0 0 0 0 0 0 0 0 0 0 0 0 0 0 0 0 0 0 0
70 77 84 66 57 94 9 0 0 0 0 0 0 0 0 1 3 2 2 4 2 2 3 1 0 0 0 0 0 0 0 0 0 0 0 0 0 0 0 0 0 0 0
114 92 11 0 0 0 0 0 0 0 0 2 5 6 4 4 4 5 2 2 0 3 0 0 0 0 0 0 0 0 0 0 0 0 0 0 0 0 0 0 0 0 0

GFSMA_con_mlcape_066.txt.gz
CAPE
107 82 0 0 0 0 0 0 0 0 0 0 0 0 13 4 0 0 2 6 7 13 8 7 3 0 0 0 0 0 0 0 0 0 0 0 0 0 0 0 0 0 0
113 103 4 0 2 0 0 0 0 0 0 0 0 0 23 5 0 0 0 4 3 4 5 4 4 3 2 0 0 0 0 1 0 0 0 0 0 0 0 0 0 0 0
109 95 79 7 19 0 0 0 12 0 0 0 0 0 6 20 2 0 0 0 0 0 0 0 0 1 4 1 0 0 0 0 0 0 0 0 0 0 0 0 0 0 0
78 88 64 78 92 18 76 3 5 0 0 0 0 0 0 4 17 0 0 0 0 0 0 0 0 0 0 2 1 3 0 0 0 2 0 0 0 0 0 0 0 0 0
33 74 52 87 119 86 98 35 5 0 0 1 0 0 1 2 0 2 2 0 0 0 0 0 0 0 0 2 6 3 6 3 1 1 2 0 0 0 0 0 0 0 0
38 55 36 61 66 11 60 33 16 25 3 2 0 0 4 0 0 0 1 4 0 0 0 0 0 0 0 0 4 16 5 2 5 2 1 1 0 0 0 0 0 0 0
28 34 39 40 44 51 25 31 35 3 6 0 9 3 0 0 0 0 0 0 0 0 0 1 0 0 0 0 0 1 16 21 11 3 3 1 1 0 0 0 0 0 0
12 7 22 52 55 48 18 14 5 0 0 0 0 0 0 0 0 0 0 0 0 0 0 0 0 0 0 0 0 0 6 1 23 24 13 2 0 0 0 0 0 0 0
5 10 55 41 52 92 36 27 33 1 2 0 0 0 0 0 0 0 0 0 0 0 0 0 0 0 0 0 0 0 0 0 0 5 17 13 0 0 0 6 7 3 4
16 14 37 44 44 119 91 67 52 89 69 13 0 0 7 68 28 0 0 0 0 0 0 0 0 0 0 0 0 0 0 0 0 0 4 3 14 13 0 9 9 13 15
15 27 66 59 137 30 116 100 92 107 152 80 17 7 12 26 55 38 0 0 0 0 0 0 0 0 0 0 0 0 0 0 0 0 0 0 4 18 10 7 12 22 27
1 20 45 55 72 53 72 67 40 36 82 77 75 119 93 42 51 32 34 24 0 0 0 0 0 0 0 0 0 0 0 0 0 0 0 0 0 0 0 0 0 0 2
0 0 17 40 24 21 68 67 42 26 46 52 57 41 70 71 53 68 48 30 27 0 0 0 0 0 0 0 0 0 0 0 0 0 0 0 0 0 0 0 0 0 0
0 0 0 7 19 27 17 53 39 17 3 5 31 42 33 47 56 55 33 24 32 20 4 0 0 0 0 0 0 0 0 0 0 0 0 0 0 0 0 0 0 0 0
0 0 0 2 4 25 32 10 9 0 0 5 22 21 29 45 58 46 47 41 19 12 0 0 0 0 0 0 0 0 0 0 0 0 0 0 0 0 0 0 0 0 0
0 0 0 8 5 12 28 23 17 1 1 5 17 6 37 39 40 35 20 24 21 21 21 1 0 0 0 0 0 0 0 0 0 0 0 0 0 0 0 0 0 0 0
0 0 0 6 16 33 33 11 3 0 1 1 3 19 29 28 32 25 36 39 28 20 19 6 0 0 0 0 0 0 0 0 0 0 0 0 0 0 0 0 0 0 0
0 0 0 3 0 0 8 10 9 12 11 2 0 9 9 17 17 17 30 28 31 28 15 11 2 0 0 0 0 0 0 0 0 0 0 0 0 0 0 0 0 0 0
0 0 0 3 0 0 0 0 0 0 0 0 0 0 0 0 3 13 15 26 35 41 23 2 1 0 0 0 0 0 0 0 0 0 0 0 0 0 0 0 0 0 0
12 0 0 0 1 0 0 0 0 0 0 0 0 0 1 0 0 8 18 40 57 24 11 2 1 0 0 0 1 2 4 0 0 0 0 0 0 0 0 0 0 0 0
40 31 1 0 1 1 0 0 0 0 0 0 0 0 0 0 2 8 35 50 24 2 6 1 1 1 0 0 1 1 2 1 0 0 0 0 0 0 0 0 0 0 0
49 45 33 24 2 0 0 0 0 0 2 5 2 2 4 2 0 0 1 34 30 1 0 0 0 0 0 2 1 1 2 0 0 0 0 0 0 0 0 0 0 0 0
68 57 51 53 38 43 24 0 0 0 20 44 32 25 20 13 7 2 0 0 0 0 0 1 1 1 0 0 0 0 0 0 0 1 1 0 0 0 0 0 0 0 0
99 91 72 48 51 55 23 11 0 0 2 4 5 8 24 22 27 3 0 3 11 5 1 0 1 2 0 0 0 0 0 1 0 0 0 0 0 0 0 0 0 0 0
88 84 81 58 37 12 0 0 0 10 10 0 0 0 0 0 0 0 2 6 6 4 4 4 2 1 0 1 1 0 1 0 0 0 0 0 0 0 0 0 0 0 0
64 66 0 0 0 0 1 0 0 0 0 0 12 8 4 3 4 1 2 1 3 3 2 0 1 0 0 0 0 0 0 0 0 0 0 0 0 0 0 0 0 0 0

GFSMA_con_mlcape_069.txt.gz
CAPE
11 0 0 0 0 0 0 0 0 0 0 0 0 0 0 0 0 0 0 3 4 9 5 5 2 1 0 0 0 0 0 0 0 0 0 0 0 0 0 0 0 0 0
0 0 0 0 0 0 0 0 0 0 0 0 0 3 0 0 0 0 0 0 1 4 3 3 1 1 0 0 0 0 0 0 0 0 0 0 0 0 0 0 0 0 0
1 0 0 0 0 0 0 0 0 0 0 0 0 1 0 0 0 0 0 0 0 0 1 0 2 2 1 0 0 0 0 0 0 0 0 0 0 0 0 0 0 0 0
3 0 0 0 0 0 0 0 0 0 0 0 1 2 0 0 0 0 0 0 0 0 0 0 0 0 0 1 0 1 0 0 1 0 0 0 0 0 0 0 0 0 0
21 5 0 0 3 0 0 0 0 0 0 0 0 0 0 0 0 0 0 0 0 0 0 0 0 0 0 1 4 4 4 1 0 1 0 0 0 0 0 0 0 0 0
3 7 12 19 65 3 0 0 1 0 0 0 0 0 0 0 0 0 0 0 0 0 0 0 0 0 0 0 4 6 4 6 5 4 4 3 0 0 0 0 0 0 0
0 19 21 21 43 55 38 25 16 4 0 0 0 0 0 0 0 0 0 0 0 0 0 0 0 0 0 0 0 5 11 7 7 2 6 3 3 1 0 0 0 0 0
0 4 21 30 9 39 38 4 8 3 2 0 0 1 0 0 0 0 0 0 0 0 0 0 0 0 0 0 0 0 1 9 14 8 1 0 0 0 2 0 0 0 0
5 1 8 4 0 6 0 0 2 0 0 0 0 1 0 0 0 0 0 0 0 0 0 0 0 0 0 0 0 0 0 0 0 2 0 0 0 0 0 3 1 0 0
0 0 0 0 0 5 9 27 16 4 0 0 0 1 0 3 0 0 0 0 0 0 0 0 0 0 0 0 0 0 0 0 0 0 0 10 5 0 0 0 0 3 6
0 0 1 0 3 15 20 26 29 13 2 0 0 2 0 3 27 16 0 0 0 0 0 0 0 0 0 0 0 0 0 0 0 0 0 0 15 19 2 3 8 1 12
0 0 0 17 21 14 63 39 28 18 10 18 18 11 0 0 0 24 21 1 0 0 0 0 0 0 0 0 0 0 0 0 0 0 0 0 0 0 0 0 7 12 17
0 0 0 3 45 27 16 64 33 46 38 42 48 46 38 27 27 35 33 15 13 0 0 0 0 0 0 0 0 0 0 0 0 0 0 0 0 0 0 0 0 0 0
0 0 0 4 12 17 22 37 48 46 27 28 15 19 32 32 47 43 33 23 14 31 6 0 0 0 0 0 0 0 0 0 0 0 0 0 0 0 0 0 0 0 0
0 0 0 0 8 6 16 24 25 29 34 25 8 1 22 4 19 31 35 17 15 4 1 0 0 0 0 0 0 0 0 0 0 0 0 0 0 0 0 0 0 0 0
0 0 0 0 0 1 10 24 18 7 7 11 6 0 1 0 1 15 4 16 30 24 5 0 0 0 0 0 0 0 0 0 0 0 0 0 0 0 0 0 0 0 0
0 0 0 0 0 0 1 2 4 2 0 0 0 0 0 0 10 9 9 16 19 17 10 0 0 0 0 0 0 0 0 0 0 0 0 0 0 0 0 0 0 0 0
0 0 0 0 0 0 0 0 0 0 0 0 0 0 0 0 0 0 0 4 10 0 4 4 0 0 0 0 0 0 0 0 0 0 0 0 0 0 0 0 0 0 0
0 0 0 0 0 0 0 0 0 0 0 0 0 0 0 0 0 0 0 0 0 0 2 17 0 3 9 0 0 0 0 0 0 0 0 0 0 0 0 0 0 0 0
0 0 0 0 0 0 0 0 0 0 0 0 0 0 0 0 0 0 1 1 0 1 5 20 32 16 2 0 0 0 1 0 1 1 0 0 0 0 0 0 0 0 0
1 1 0 0 0 0 0 2 0 1 0 0 0 0 0 0 1 2 4 7 12 20 27 46 50 13 3 0 0 0 1 1 1 0 0 1 1 1 0 0 0 0 1
2 2 1 0 0 0 0 0 0 0 0 0 0 0 0 0 0 0 0 0 6 16 25 44 27 9 1 0 1 0 1 0 1 1 0 1 0 1 0 0 0 2 0
13 10 16 30 17 1 0 0 0 0 0 0 0 0 0 0 0 0 0 0 0 0 0 0 8 3 1 0 0 0 0 0 0 1 0 1 0 0 2 2 0 0 0
57 59 60 40 45 44 15 3 0 0 1 0 1 9 18 25 15 21 0 0 2 10 5 3 2 3 1 0 0 0 0 1 2 1 0 0 0 0 0 1 0 0 0
56 61 67 45 49 67 0 0 0 0 1 0 0 0 0 0 0 0 0 0 19 15 5 5 3 1 1 2 2 0 1 0 1 0 0 0 0 0 0 0 0 0 0
34 27 0 0 0 0 1 0 0 0 0 0 10 7 5 3 2 1 0 9 11 7 3 2 2 1 0 0 1 0 1 0 0 0 0 0 0 0 0 0 0 0 0

GFSMA_con_mlcape_072.txt.gz
CAPE
29 2 1 0 0 0 0 0 0 0 0 0 0 0 0 0 0 0 0 1 3 4 3 4 2 3 2 2 1 0 0 0 0 0 0 0 0 0 0 0 0 0 0
1 0 1 0 0 0 0 0 0 0 0 0 0 0 0 0 0 0 0 0 0 1 4 3 2 1 1 1 0 0 0 0 0 0 0 0 0 0 0 0 0 0 0
0 1 0 0 0 0 0 0 0 0 0 0 0 0 0 0 0 0 0 0 0 0 0 3 3 3 1 0 0 0 0 0 0 0 0 0 0 0 0 0 0 0 0
0 0 0 0 0 0 0 0 0 0 0 0 0 0 0 0 0 0 0 0 0 0 0 0 1 1 0 0 0 0 0 0 0 0 0 0 0 0 0 0 0 0 0
0 0 0 0 0 0 0 0 0 0 0 0 0 0 0 0 0 0 0 0 0 0 0 0 0 0 0 0 0 0 0 1 0 0 0 0 0 0 0 0 0 0 0
0 0 0 0 0 0 0 0 0 0 0 0 0 0 0 0 0 0 0 0 0 0 0 0 0 0 0 0 0 2 3 5 2 2 2 0 0 0 0 0 0 0 0
0 0 0 0 0 0 0 0 0 0 0 0 0 0 0 0 0 0 0 0 0 0 0 0 0 0 0 0 0 3 7 3 2 3 2 4 1 0 0 0 0 0 0
0 0 0 2 8 0 0 0 0 0 0 0 0 0 0 0 0 0 0 0 0 0 0 0 0 0 0 0 0 0 1 7 14 7 4 2 0 0 0 0 0 0 0
3 13 0 16 40 30 5 3 0 0 1 0 0 0 0 0 2 0 2 0 0 0 0 0 0 0 0 0 0 0 0 0 3 22 13 0 0 0 0 0 0 0 0
0 1 21 7 22 55 35 18 0 0 3 0 0 0 0 0 0 0 0 0 0 0 0 0 0 0 0 0 0 0 0 0 0 0 16 28 7 0 0 0 0 0 1
0 0 8 16 10 37 30 12 20 1 0 0 0 0 0 0 0 0 0 0 0 0 0 0 0 0 0 0 0 0 0 0 0 0 0 1 19 22 7 1 1 3 1
0 1 4 9 0 7 20 7 0 3 1 5 0 0 0 0 0 13 4 0 0 0 0 0 0 0 0 0 0 0 0 0 0 0 0 0 0 8 52 52 39 16 3
0 0 0 0 0 3 3 1 2 5 11 15 13 0 0 0 0 0 8 12 5 0 0 0 0 0 0 0 0 0 0 0 0 0 0 0 0 0 17 35 56 59 44
0 0 0 0 0 0 1 26 12 8 36 33 17 15 21 27 28 35 24 33 17 7 6 0 0 0 0 0 0 0 0 0 0 0 0 0 0 0 0 1 26 48 62
0 0 0 2 0 6 11 10 38 61 35 35 31 55 62 33 26 38 29 14 21 4 0 0 0 0 0 0 0 0 0 0 0 0 0 0 0 0 0 0 0 6 28
0 0 0 0 0 0 8 24 16 20 28 31 34 32 16 3 2 1 10 15 5 13 8 0 0 0 0 0 0 0 0 0 0 0 0 0 0 0 0 0 0 0 0
0 0 0 0 0 0 0 1 7 5 5 11 18 17 1 1 0 1 0 5 0 1 8 2 0 0 0 0 0 0 0 0 0 0 0 0 0 0 0 0 0 0 0
0 0 0 0 0 0 0 0 1 2 3 1 0 0 2 0 0 0 0 0 0 2 9 11 0 0 0 0 0 0 0 0 0 0 0 0 0 0 0 0 0 0 0
0 0 0 0 0 0 0 0 0 0 0 0 0 0 0 0 0 0 0 0 0 0 0 1 0 0 0 0 0 0 0 0 0 0 0 0 0 0 0 0 0 1 0
2 0 0 0 0 0 0 0 0 0 0 0 0 0 0 0 0 0 0 0 0 0 0 0 1 1 0 0 0 0 0 0 0 0 0 0 0 0 1 0 0 1 0
1 0 0 0 0 0 0 0 0 0 0 0 0 0 0 0 0 0 0 0 0 0 0 1 2 2 2 0 0 0 1 0 0 0 1 0 1 2 1 0 0 1 0
0 0 0 1 0 0 0 0 0 0 0 0 0 0 0 0 0 0 0 0 0 0 0 1 3 4 0 1 0 0 0 0 0 1 0 1 0 1 2 2 2 0 2
0 0 0 0 0 0 0 0 0 0 0 2 3 2 1 0 0 0 0 0 0 0 0 0 2 1 3 1 2 0 0 0 0 2 0 0 1 2 2 2 0 1 2
0 0 1 1 1 1 0 0 0 0 0 0 0 2 0 0 0 0 0 0 0 0 0 0 0 0 1 1 0 0 1 5 3 1 0 0 1 1 1 2 3 2 1
0 0 0 2 1 2 0 0 0 0 0 0 0 0 0 0 0 0 0 0 1 16 8 7 7 5 3 2 3 0 1 0 1 2 1 2 0 1 0 0 0 0 0
2 1 6 18 22 13 8 9 1 1 1 0 4 11 12 5 4 0 0 3 10 18 5 1 1 0 2 2 0 0 1 0 0 0 0 0 0 0 0 0 0 0 0

GFSMA_con_mlcape_075.txt.gz
CAPE
4 121 45 0 8 7 0 0 0 0 0 0 0 0 0 0 0 0 0 7 4 7 11 12 8 6 7 4 4 3 1 1 1 1 0 1 1 0 0 0 0 0 0
77 95 22 0 0 0 0 0 0 0 0 0 0 0 0 0 0 0 0 1 5 8 4 8 8 5 3 2 1 1 0 0 0 0 0 0 0 0 0 0 0 0 0
125 50 16 1 0 0 0 0 0 0 0 0 0 0 0 0 0 0 0 0 1 5 3 3 5 3 3 1 0 0 0 0 0 0 0 0 0 0 0 0 0 0 0
74 21 1 0 0 0 0 0 0 0 0 0 0 0 0 0 0 0 0 0 0 0 3 0 3 2 2 2 1 0 0 0 0 0 0 0 0 0 0 0 0 0 0
2 1 1 0 0 0 0 0 0 0 0 0 0 0 0 0 0 0 0 0 0 0 0 0 0 1 0 1 1 1 0 0 0 0 0 0 0 0 0 0 0 0 0
0 0 0 0 0 0 0 0 0 0 0 0 0 0 0 0 0 0 0 0 0 0 0 0 0 0 0 0 1 1 2 3 1 1 0 0 0 0 0 0 0 0 0
0 3 0 0 0 0 0 0 0 0 0 0 0 0 0 0 0 0 0 0 0 0 0 0 0 0 0 0 0 1 2 1 4 5 7 6 2 0 0 0 0 0 0
1 0 0 0 0 0 0 0 0 0 0 0 0 0 0 0 0 0 0 0 0 0 0 0 0 0 0 0 0 0 2 12 19 18 9 0 4 1 0 0 0 0 0
0 0 0 0 0 0 0 0 0 0 0 0 0 0 0 0 3 0 0 0 0 0 0 0 0 0 0 0 0 0 0 0 4 37 34 7 0 0 0 0 0 0 0
1 0 0 3 2 0 0 2 3 3 1 3 0 0 0 0 18 5 0 0 5 10 12 6 0 0 0 0 0 0 0 0 0 0 9 40 13 1 0 0 0 0 0
0 0 0 0 5 1 9 26 17 6 14 14 0 0 1 0 0 0 11 1 0 2 23 18 4 0 0 0 0 0 0 0 0 0 0 0 3 44 12 1 0 0 0
1 0 0 0 2 7 15 20 34 36 8 0 4 8 5 1 3 0 0 0 0 1 0 1 0 0 0 0 0 0 0 0 0 0 0 0 0 0 18 39 27 11 11
0 0 0 0 0 0 17 13 30 33 10 1 0 0 2 4 7 14 0 0 6 5 0 0 0 0 0 0 0 0 0 0 0 0 0 0 0 0 0 15 40 78 84
0 0 0 0 0 0 3 12 23 31 7 5 1 0 0 9 12 14 3 6 0 0 0 0 0 0 0 0 0 0 0 0 0 0 0 0 0 0 0 0 1 17 45
0 0 0 0 0 0 0 0 1 0 0 0 8 0 0 1 23 19 20 23 6 1 1 0 0 0 0 0 0 0 0 0 0 0 0 0 0 0 0 0 0 0 1
1 0 0 0 0 0 0 0 0 1 2 3 4 2 19 19 30 51 67 61 37 28 10 3 0 0 0 0 0 0 0 0 0 0 0 0 0 0 0 0 0 0 0
0 0 0 0 0 0 0 0 0 0 1 6 8 12 19 31 46 54 45 34 6 2 6 0 0 0 0 0 0 0 0 0 0 0 0 0 0 0 0 0 0 0 0
0 0 0 0 0 0 0 0 0 1 3 3 12 17 20 27 31 38 19 12 6 1 3 6 0 0 0 0 0 0 0 0 0 0 0 0 0 0 0 0 0 0 0
0 0 0 0 0 0 0 0 0 0 0 3 5 10 3 6 4 2 0 2 1 0 0 2 0 1 0 0 0 0 0 0 0 0 0 0 0 0 0 0 0 0 0
0 0 0 0 0 0 0 0 0 0 0 1 0 0 1 2 4 1 1 0 0 0 0 0 0 0 0 0 0 0 0 0 0 0 0 0 0 0 0 0 0 0 1
0 0 1 0 0 0 0 0 0 0 0 0 0 0 0 0 0 0 0 0 0 0 0 0 1 1 2 0 0 0 0 0 0 0 0 0 0 0 0 0 1 0 0
0 0 0 0 0 0 0 0 0 0 0 0 0 0 0 0 0 0 0 0 0 0 0 0 0 0 0 0 0 1 1 0 2 0 0 0 2 1 1 2 1 0 2
0 1 0 0 0 0 0 0 0 0 0 0 0 0 0 0 0 0 0 0 0 0 0 0 0 0 0 0 3 5 0 0 0 1 1 0 1 1 2 2 2 2 2
2 2 1 1 1 1 0 0 0 0 0 0 0 0 0 0 0 0 0 0 0 0 0 0 2 0 1 3 1 1 0 1 6 4 1 1 1 1 1 2 2 3 4
5 4 7 7 4 4 12 9 4 0 2 1 0 0 0 0 0 0 0 0 0 6 9 12 3 3 1 0 0 1 0 0 1 3 0 1 1 1 0 0 0 1 1
9 8 6 6 4 6 1 0 0 3 3 0 8 8 5 9 8 6 2 1 2 16 5 1 1 0 1 5 4 1 0 0 0 0 0 1 0 0 0 0 0 0 0

GFSMA_con_mlcape_078.txt.gz
CAPE
54 58 20 52 39 0 0 0 0 0 0 0 0 0 0 0 0 0 1 3 8 19 10 10 7 6 5 7 7 5 3 4 4 2 2 1 1 1 0 0 0 0 0
10 52 56 47 5 0 0 0 0 0 0 0 0 0 0 0 0 0 0 4 7 8 5 5 11 7 5 4 5 4 3 2 2 1 1 1 0 0 0 0 0 0 0
3 60 59 34 8 0 0 0 0 0 0 0 0 0 0 0 0 0 0 0 4 4 5 11 10 9 4 4 6 3 2 0 1 1 0 0 0 0 0 0 0 0 0
69 86 85 23 1 0 0 0 0 0 0 0 0 0 0 0 0 0 0 0 0 4 4 7 8 8 3 3 2 2 2 0 0 0 0 0 0 0 0 0 0 0 0
7 76 37 1 0 0 0 0 0 0 0 0 0 0 0 0 0 0 0 0 0 0 0 1 4 3 2 3 3 4 1 0 0 0 0 0 0 0 0 0 0 0 0
20 15 1 1 0 0 0 0 0 0 0 0 0 0 0 0 0 0 0 0 0 0 0 0 0 0 0 0 3 5 5 4 1 0 0 0 0 0 0 0 0 0 0
19 5 1 0 0 0 0 0 0 0 0 0 0 0 0 0 0 0 0 0 0 0 0 0 0 0 0 0 0 3 7 4 3 5 7 2 0 0 0 0 0 0 0
1 2 0 0 0 0 0 0 0 0 0 0 0 0 1 0 0 0 0 0 0 0 0 0 0 0 0 0 0 0 5 5 14 12 6 2 0 0 0 0 0 0 0
0 0 0 0 0 0 0 0 0 0 0 0 0 0 0 0 0 0 0 0 0 0 0 0 0 0 0 0 0 0 0 0 3 34 44 0 0 0 0 0 0 0 0
0 0 0 0 0 0 0 0 0 0 0 0 0 0 0 0 11 0 0 0 0 0 0 0 8 9 8 0 0 0 0 0 0 0 8 95 62 8 0 0 0 0 0
0 0 0 0 0 0 0 3 1 0 0 4 4 1 2 1 10 3 0 3 4 1 0 0 9 15 12 10 0 1 0 0 0 0 0 2 9 92 72 13 1 0 0
2 0 0 0 0 0 0 7 5 13 13 3 19 43 39 18 15 23 1 10 15 0 12 7 15 29 37 32 19 16 5 1 0 0 0 0 1 7 21 83 72 32 12
0 2 2 3 0 0 0 0 22 22 29 45 42 39 24 22 23 23 15 3 1 0 0 0 0 11 7 8 14 6 3 0 0 0 0 0 0 0 1 17 40 81 106
1 0 2 2 2 0 0 1 0 20 24 6 2 7 3 6 1 2 22 23 22 3 0 0 0 0 0 0 0 0 0 0 0 0 0 0 0 0 0 0 3 9 28
0 0 0 0 0 0 0 0 16 12 4 11 8 8 20 10 0 0 1 8 30 11 0 0 9 2 0 0 0 0 0 0 0 0 0 0 0 0 0 0 0 0 1
0 0 0 0 0 0 0 1 0 1 16 5 11 12 6 2 3 1 0 5 1 6 0 0 1 12 0 0 0 0 0 0 0 0 0 0 0 0 0 0 0 0 0
0 0 0 0 0 0 1 2 1 0 0 2 0 0 3 1 1 2 0 0 4 9 7 10 10 1 0 0 0 0 0 0 0 0 0 0 0 0 0 0 0 0 0
0 0 0 0 0 0 0 0 0 0 0 0 0 0 1 0 0 0 2 7 4 15 30 17 4 0 0 0 0 0 0 0 0 0 0 0 0 0 0 0 0 0 0
0 0 0 0 0 0 0 0 0 0 0 0 0 1 1 3 3 4 5 6 11 12 8 3 0 5 0 1 0 0 0 0 0 0 0 0 0 0 0 0 0 0 0
0 0 0 0 0 0 0 0 0 0 0 0 0 0 2 1 0 5 16 8 4 6 7 6 4 5 2 0 0 0 0 0 0 0 0 0 0 0 0 0 0 0 0
0 0 0 0 0 0 0 0 0 0 0 0 0 0 0 0 1 1 2 1 1 1 1 0 1 0 0 0 0 0 0 0 0 0 0 0 0 0 0 0 0 0 0
0 0 0 0 0 0 0 0 0 0 0 0 0 0 0 0 0 0 0 0 0 1 0 0 0 1 0 0 0 0 0 0 1 0 0 0 0 1 0 0 1 0 0
0 1 0 0 0 0 1 0 0 0 0 0 0 0 0 0 0 0 0 0 0 0 0 0 0 0 0 0 0 0 0 0 0 0 0 0 6 3 3 1 0 0 1
3 2 3 4 2 7 1 1 1 0 1 0 0 0 0 0 1 2 0 1 0 0 3 1 0 1 7 6 3 2 0 1 4 3 0 2 2 3 1 2 3 3 2
8 9 8 7 7 5 4 0 0 0 2 3 9 7 2 2 3 0 2 2 4 11 4 7 7 5 7 8 2 3 1 1 1 1 0 1 2 2 1 1 1 1 2
6 5 7 5 5 4 6 2 0 2 2 7 3 2 2 6 6 0 0 0 1 4 0 0 2 1 1 2 3 1 1 0 2 0 0 1 0 0 0 1 0 1 0

GFSMA_con_mlcape_081.txt.gz
CAPE
46 98 51 105 58 3 53 127 20 1 0 0 0 0 0 0 0 0 3 4 10 13 21 20 25 16 6 8 6 3 5 4 4 4 2 1 1 1 1 0 0 0 0
35 91 77 85 51 0 12 65 0 0 0 0 0 0 0 0 0 0 3 10 12 17 25 27 21 12 7 13 7 4 3 4 4 2 3 2 1 1 1 0 0 0 0
4 67 102 98 51 1 0 3 0 0 0 0 0 0 0 0 0 0 6 10 7 14 21 21 7 4 3 7 8 3 1 2 3 3 3 2 0 0 0 0 0 0 0
22 61 73 55 7 0 0 2 0 0 0 0 0 0 0 0 0 4 2 5 9 3 6 6 6 5 5 6 12 8 3 1 1 1 1 2 0 0 0 0 0 0 0
5 72 79 33 4 1 0 0 0 0 0 0 0 0 0 0 0 4 1 2 7 10 17 9 5 5 4 5 10 10 4 2 2 2 1 0 0 0 0 0 0 0 0
3 56 37 6 2 2 0 0 0 0 7 3 0 0 0 1 3 4 6 0 2 6 11 14 9 9 5 4 9 10 7 4 3 1 1 0 0 0 0 0 0 0 0
11 7 2 1 1 1 0 0 0 0 0 2 0 1 4 2 1 0 4 5 0 2 2 2 2 5 2 0 2 8 3 6 7 4 3 1 0 0 0 0 0 0 0
4 9 0 2 3 2 0 0 0 0 0 0 0 1 4 2 2 2 1 5 3 0 2 0 0 0 0 0 0 0 1 5 15 10 1 0 0 0 0 0 0 0 0
3 2 2 2 1 1 0 0 0 0 0 0 0 2 2 7 2 3 1 4 3 1 0 0 0 0 0 0 0 1 0 0 1 40 36 0 0 0 0 0 0 0 0
1 2 2 0 0 0 0 0 0 0 0 0 0 0 12 1 19 1 0 0 0 0 1 0 0 0 0 4 13 12 5 0 0 0 23 92 83 12 0 0 0 0 0
2 2 2 0 0 0 0 0 0 0 0 0 2 4 0 1 11 18 0 0 0 0 0 2 2 4 3 3 16 14 4 5 3 0 0 5 11 73 107 80 16 1 0
1 1 0 0 0 0 0 0 0 0 0 3 5 11 12 28 25 36 33 45 42 17 4 7 1 3 1 0 9 14 18 6 0 0 1 0 0 2 20 93 160 134 84
2 0 0 0 0 0 0 0 0 0 1 9 24 30 37 47 51 35 42 30 37 44 13 19 15 7 3 6 16 18 18 3 1 0 0 0 0 3 2 15 48 108 149
3 1 0 0 0 0 0 0 0 4 13 6 11 30 43 42 29 13 35 33 21 18 8 6 7 11 0 3 3 10 14 0 0 0 0 0 0 0 0 0 4 14 20
3 0 2 2 1 0 0 0 0 0 0 3 10 14 25 18 15 18 0 10 15 26 12 3 2 0 0 0 0 5 0 0 0 0 0 0 0 0 0 0 0 0 0
17 6 1 1 2 0 0 0 0 0 0 0 0 20 27 25 5 0 5 3 0 22 21 1 1 21 3 1 0 0 0 0 0 0 0 0 0 0 0 0 0 0 0
1 1 0 2 2 1 0 3 0 2 0 0 18 19 19 8 16 16 11 2 0 1 3 1 3 1 0 0 1 0 0 0 0 0 0 0 0 0 0 0 0 0 0
0 0 0 5 5 2 3 2 1 4 0 0 0 0 0 1 1 0 1 1 1 0 7 10 2 6 4 2 5 12 2 0 0 0 0 0 0 0 0 0 0 0 0
0 1 1 1 1 2 1 2 2 1 2 2 2 1 1 3 8 2 1 0 0 0 0 7 2 3 9 2 0 1 4 17 4 0 0 0 0 0 0 0 0 0 0
0 0 0 0 0 3 2 2 0 0 0 0 0 1 0 0 0 0 8 2 4 21 16 8 9 3 4 7 14 10 9 6 0 0 0 0 0 0 0 0 0 0 0
0 0 0 0 0 0 0 0 0 0 0 0 0 0 0 0 0 2 13 6 6 4 4 7 7 7 5 6 4 0 1 0 0 4 5 6 4 2 0 0 0 0 0
0 1 1 0 0 0 1 0 0 2 0 0 1 0 0 0 0 0 0 0 0 2 1 2 2 2 0 0 0 0 0 1 2 0 1 1 9 4 0 1 5 1 0
2 2 3 3 6 4 1 0 0 0 0 1 1 0 0 1 0 0 0 0 0 0 1 0 1 1 1 0 0 0 0 0 1 1 1 1 3 5 4 3 3 3 3
7 7 9 8 6 5 3 0 0 0 1 2 7 5 2 2 2 0 0 1 1 8 5 6 6 5 5 1 2 3 2 3 0 1 0 1 1 3 3 2 1 3 3
6 9 7 8 8 7 4 0 0 2 9 10 7 6 6 3 1 0 0 0 6 4 3 6 7 5 6 8 2 0 0 1 0 2 1 0 1 2 1 1 1 1 1
6 3 5 4 5 5 5 2 3 4 7 8 3 3 3 5 5 1 3 4 3 4 2 1 2 0 1 2 2 2 3 0 0 0 0 2 0 0 0 1 1 1 1

GFSMA_con_mlcape_084.txt.gz
CAPE
198 67 40 127 188 139 127 126 205 159 148 107 88 39 18 14 10 15 14 5 10 23 4 8 20 20 12 12 5 7 7 6 4 3 4 4 2 1 2 1 1 1 0
92 108 147 142 84 55 108 93 131 117 118 70 78 31 8 2 3 4 2 4 9 10 15 19 31 19 4 4 5 6 5 7 6 4 2 2 1 1 1 0 0 0 0
73 157 209 157 68 97 73 89 116 92 91 79 47 24 10 2 2 0 3 10 13 13 21 19 22 16 6 6 6 3 8 11 10 5 4 3 2 1 0 0 0 0 0
10 35 89 139 111 63 84 61 100 78 74 73 32 35 8 0 0 0 5 23 9 11 20 16 13 7 7 5 5 5 3 9 8 8 5 5 1 1 1 0 0 0 0
5 1 81 170 71 23 80 47 95 86 71 57 35 31 8 7 2 8 5 24 14 4 19 13 5 6 7 6 7 4 3 4 5 9 7 4 1 0 0 0 0 0 0
8 23 71 95 33 8 5 21 58 71 85 42 27 20 26 11 6 8 9 24 24 15 24 9 8 7 5 3 3 4 5 4 3 4 3 1 0 0 0 0 0 0 0
2 17 68 55 12 2 1 6 66 62 46 49 35 22 20 4 19 6 9 18 17 15 17 22 13 6 0 0 0 1 4 3 4 3 1 1 0 0 0 0 0 0 0
45 18 36 23 5 2 1 0 50 39 49 27 24 13 10 12 8 10 9 11 18 19 18 11 4 2 1 0 1 0 2 3 6 4 0 0 0 0 0 0 0 0 0
8 10 23 2 2 2 1 0 9 28 42 41 48 10 10 7 10 20 8 9 9 11 7 16 18 16 7 0 0 0 0 1 9 11 3 0 0 0 0 0 0 0 0
4 2 6 2 1 2 2 1 3 30 22 22 32 32 13 8 18 22 13 3 4 7 7 3 2 2 0 5 7 0 0 0 0 4 41 90 54 7 5 0 0 0 0
1 1 1 1 1 2 2 0 4 31 7 6 7 34 39 50 24 26 19 17 10 8 6 2 2 1 1 0 13 19 0 0 0 0 0 17 78 159 166 124 61 26 6
3 2 0 2 2 2 2 2 4 36 4 30 20 40 8 24 34 43 31 52 37 62 75 57 49 49 49 41 31 23 20 1 2 2 4 13 22 40 50 62 116 123 117
1 2 2 1 2 2 1 0 0 1 0 15 9 32 0 17 36 68 57 35 31 71 63 82 71 70 69 76 52 26 16 4 0 2 11 18 26 24 21 16 15 36 87
0 0 0 2 2 2 2 0 0 0 5 19 22 50 54 63 59 58 24 15 18 41 62 69 77 103 99 99 105 71 63 10 0 0 8 4 3 0 0 0 0 0 3
16 2 0 0 0 0 0 0 0 0 0 30 58 69 53 59 54 54 33 5 3 3 12 52 45 46 124 127 80 87 76 23 0 0 6 1 0 0 0 0 0 0 0
7 4 3 2 0 0 0 0 0 0 0 0 5 7 19 21 40 49 55 34 31 20 15 12 26 31 50 25 14 12 19 25 11 0 0 0 0 0 0 0 0 0 0
4 7 0 2 2 1 0 0 0 0 0 0 0 0 0 0 5 13 22 9 6 1 3 1 7 10 21 32 15 2 3 1 0 0 0 0 0 0 0 0 0 0 0
18 18 4 1 2 2 1 0 0 0 0 0 0 0 0 0 0 4 12 5 7 18 11 12 3 1 0 0 0 0 0 0 5 5 0 0 0 0 0 0 0 0 0
12 14 12 13 6 2 3 1 0 0 0 0 0 0 0 0 0 0 0 2 9 2 1 1 0 0 0 0 1 12 2 17 51 4 0 0 0 0 0 0 0 0 0
0 14 6 2 1 12 9 2 2 1 0 0 0 0 0 1 0 1 5 4 5 4 4 20 6 6 13 0 9 10 10 16 16 14 6 2 1 0 0 0 0 0 0
15 14 14 5 3 5 0 0 12 4 5 3 5 21 19 13 22 23 19 3 9 12 5 15 20 9 6 25 25 15 25 10 3 4 2 8 7 13 0 3 1 1 5
0 0 0 0 2 0 6 2 0 0 12 11 4 7 14 7 4 0 0 0 0 10 26 18 14 10 3 1 0 0 1 2 1 0 0 0 1 7 6 5 2 2 1
6 6 7 6 8 4 1 0 0 0 2 0 1 1 0 2 0 0 2 4 10 13 9 2 0 1 0 3 6 1 4 0 0 0 0 0 0 0 3 2 3 3 3
10 10 9 6 4 5 1 0 1 4 4 7 9 7 4 4 2 0 3 1 7 11 7 7 5 6 6 4 2 2 2 4 1 1 1 1 2 5 3 2 3 3 3
6 7 5 6 7 7 2 2 3 7 7 6 4 5 1 0 1 0 2 6 12 7 2 4 4 3 5 4 2 0 0 1 2 1 1 2 1 1 1 1 1 1 1
4 2 5 2 2 5 3 2 3 1 4 5 4 3 2 5 3 1 0 1 1 2 0 0 0 0 1 1 2 2 1 2 3 2 2 4 3 2 3 3 2 3 4

GFSMA_con_mlcape_087.txt.gz
CAPE
695 489 182 112 109 195 62 12 22 130 236 208 188 164 49 63 34 49 0 0 6 16 13 12 13 5 12 12 8 6 4 2 1 7 8 5 2 2 1 1 3 0 0
577 574 330 141 152 238 78 11 42 112 218 184 141 146 37 40 22 20 7 0 14 12 4 11 16 21 20 15 8 4 3 9 3 8 9 8 5 3 1 2 0 0 0
536 351 236 234 208 229 187 42 48 81 146 134 119 69 33 35 14 5 13 14 13 2 3 22 26 20 7 4 3 2 3 3 3 5 9 10 8 7 2 0 0 0 0
405 346 305 306 227 155 104 52 62 50 61 150 83 33 44 21 11 5 10 4 6 2 14 28 15 13 8 2 4 7 6 4 3 1 4 5 1 2 2 0 0 0 0
402 356 311 186 141 109 92 77 60 34 55 72 50 48 29 8 7 4 15 3 1 7 19 19 12 8 7 5 5 6 7 7 6 5 3 2 0 1 1 0 0 0 0
129 59 11 27 86 100 116 86 44 39 78 61 28 31 33 24 17 6 9 9 9 6 16 12 10 7 5 8 3 5 4 5 4 3 3 2 1 0 0 0 0 0 0
95 3 9 25 39 67 81 94 55 21 40 57 79 34 33 21 26 14 14 2 15 1 7 18 0 1 0 0 0 0 3 3 2 2 1 0 0 0 0 0 0 0 0
2 4 15 53 29 27 43 65 42 26 41 76 31 19 30 10 24 10 11 0 21 13 14 27 11 0 1 0 0 0 0 0 0 1 0 0 0 0 0 0 0 0 0
137 39 47 32 8 23 10 8 11 13 31 37 23 2 11 8 22 18 24 5 20 13 12 9 3 3 3 5 0 0 0 0 0 5 8 0 0 0 0 0 0 0 0
109 97 79 51 62 8 1 5 6 22 26 45 35 17 0 0 1 26 27 5 5 0 5 11 5 2 4 2 2 0 0 0 0 3 43 36 11 0 0 0 2 2 0
2 7 6 16 11 16 1 7 0 25 25 70 45 44 20 23 18 15 0 16 18 26 19 2 1 2 0 0 0 0 0 0 0 0 6 53 129 125 77 52 43 33 34
2 0 1 4 3 2 2 2 1 0 36 41 62 77 64 29 58 39 59 27 20 22 23 14 1 0 1 0 0 0 6 1 1 0 0 1 24 72 129 150 181 186 160
1 0 0 0 1 1 2 2 3 12 43 29 73 61 82 78 66 47 54 57 26 26 42 54 74 75 61 85 82 23 19 10 8 13 6 0 0 1 13 59 85 121 150
3 1 2 0 1 1 2 2 3 29 43 43 81 72 62 61 78 63 69 42 20 38 35 33 79 104 134 123 119 102 86 40 21 14 5 2 3 4 11 35 41 35 35
1 1 2 1 0 1 1 1 1 1 2 30 49 48 60 47 86 77 52 68 18 24 23 4 11 75 106 131 124 107 112 108 44 21 6 0 0 0 1 1 7 5 2
3 5 2 3 3 1 2 2 0 0 1 4 32 40 43 54 40 47 57 59 46 10 0 0 0 12 41 27 62 60 130 102 56 24 0 0 0 0 0 0 0 0 0
17 32 6 1 0 0 0 0 0 0 0 0 0 0 8 26 50 46 44 54 54 33 19 1 0 0 1 5 9 17 12 19 22 7 0 0 0 0 0 0 0 0 0
18 3 26 3 2 1 1 0 0 0 0 0 0 0 0 1 1 12 14 5 4 5 3 0 0 0 0 0 0 0 0 3 0 0 0 0 0 0 0 0 0 0 0
12 27 9 3 2 2 1 0 0 0 0 0 0 0 2 0 0 0 0 0 0 0 0 1 0 0 4 1 1 2 1 4 1 0 0 0 0 0 0 0 0 0 0
8 1 6 11 2 1 1 1 0 0 0 0 0 0 0 0 0 0 0 0 0 0 0 3 3 1 2 5 32 5 9 4 1 15 33 17 4 0 0 0 0 1 0
1 4 8 4 1 0 0 0 0 2 1 0 0 0 1 0 0 0 0 0 1 2 2 2 8 9 9 14 17 35 39 22 32 0 0 0 0 2 5 4 3 2 0
2 2 1 2 4 2 5 2 0 0 0 0 0 0 0 0 3 0 2 3 1 0 0 0 1 3 0 3 0 1 2 2 0 2 0 0 0 1 4 3 2 2 4
4 10 9 7 5 3 0 0 1 0 1 5 4 1 0 4 2 4 2 5 8 7 5 4 2 5 2 7 7 2 5 6 6 0 0 1 2 1 3 2 2 3 3
7 7 7 6 4 3 3 2 2 4 7 8 7 7 4 2 1 2 1 4 4 7 6 4 3 6 6 5 4 3 4 3 1 1 0 2 2 3 1 1 2 3 2
5 6 4 4 6 4 2 3 2 3 6 7 5 5 3 2 1 6 1 3 4 3 3 3 3 2 2 2 1 0 1 0 2 4 1 2 2 1 0 1 1 0 0
3 2 4 1 2 2 1 1 1 2 3 5 3 3 3 3 4 2 0 1 3 5 2 1 0 0 0 1 2 1 1 3 3 2 2 1 0 0 2 1 0 0 1

GFSMA_con_mlcape_093.txt.gz
CAPE
956 958 572 373 226 276 157 92 53 33 22 62 112 122 77 61 17 15 16 18 2 0 3 9 6 5 11 8 2 1 0 5 14 6 6 8 5 4 4 4 2 3 2
918 949 711 437 266 136 86 40 52 22 1 79 16 58 60 60 12 0 1 4 0 0 1 12 10 3 7 4 4 2 4 5 2 10 4 4 1 0 0 0 0 0 0
957 883 676 412 335 197 108 30 21 9 4 14 18 30 51 28 4 5 8 2 0 0 0 8 8 6 8 10 5 11 1 2 3 8 5 1 0 0 0 0 0 0 0
1034 882 639 398 379 222 93 25 14 10 0 7 10 34 46 24 1 2 0 0 0 0 2 8 8 10 14 10 2 6 3 4 6 4 6 1 0 0 0 0 0 0 0
964 804 564 425 387 228 34 10 6 5 3 13 26 45 34 11 0 0 0 0 0 0 0 5 5 9 14 14 1 5 7 6 5 4 4 0 0 0 0 0 0 0 0
860 658 479 378 307 178 63 4 0 0 0 36 37 60 23 0 4 0 0 0 0 0 0 4 15 10 1 2 5 5 6 7 9 7 6 2 1 1 1 0 0 0 0
706 544 395 277 252 147 58 3 3 2 7 26 21 2 12 0 0 0 0 0 0 0 0 0 7 0 0 0 2 7 11 13 11 10 8 6 4 4 1 1 0 0 0
580 458 337 274 193 87 67 22 17 11 10 19 24 14 0 0 0 0 0 0 0 0 0 0 0 0 0 0 0 1 8 17 14 12 9 4 2 1 0 0 0 0 0
424 317 288 255 229 161 66 35 20 5 8 15 8 0 2 0 2 4 0 8 0 0 0 0 0 0 0 0 0 0 0 0 9 12 8 3 2 1 0 0 0 0 0
233 215 184 112 106 87 73 62 32 2 3 7 15 22 0 0 0 0 10 11 5 10 0 0 0 0 0 0 0 0 0 0 0 1 5 0 0 0 0 0 0 0 0
146 156 147 112 107 61 60 113 58 1 0 1 0 15 2 0 2 0 0 0 5 2 2 0 0 0 0 0 0 0 0 0 0 0 0 0 5 0 0 0 0 0 3
178 135 129 69 30 9 38 89 86 18 1 0 3 2 2 0 0 0 0 0 0 0 0 0 0 0 0 0 0 0 0 0 0 0 0 0 0 12 62 63 58 58 64
52 5 0 6 10 21 19 26 53 48 5 0 0 0 0 0 1 18 30 5 0 0 0 0 0 0 0 0 0 0 0 0 0 0 0 0 0 0 0 7 86 167 182
1 0 0 1 2 0 16 9 33 30 19 1 0 1 5 0 15 45 41 63 49 30 10 0 0 0 0 0 0 0 0 0 1 5 0 0 0 0 0 0 0 3 28
0 0 0 1 1 2 4 3 16 8 26 3 1 1 6 15 58 48 48 52 51 37 39 29 29 36 31 18 29 17 4 6 3 0 0 1 4 0 1 8 9 11 19
0 0 0 0 2 2 0 1 20 7 14 3 2 4 0 10 39 46 47 30 13 28 20 9 46 49 46 65 52 75 46 34 13 7 0 1 11 19 7 7 11 13 13
0 0 1 2 1 1 0 0 1 1 1 1 2 3 5 23 9 22 31 21 31 22 1 29 29 7 13 32 50 43 37 40 15 1 0 0 0 0 0 0 0 0 0
3 0 1 0 1 0 0 0 0 1 1 8 3 5 3 5 1 12 23 34 0 6 4 11 29 13 1 13 11 8 2 6 0 0 0 0 0 0 0 0 0 0 0
10 4 1 0 0 0 0 0 0 0 0 0 0 0 1 0 0 0 5 11 7 14 17 30 4 7 9 6 1 0 0 0 0 0 0 0 0 1 0 1 2 0 0
9 10 5 1 1 1 0 0 0 0 0 0 1 1 0 0 0 0 0 0 1 1 19 1 0 0 0 0 0 0 0 0 0 2 1 2 4 5 6 5 4 2 2
0 0 0 0 0 0 0 0 0 0 0 0 1 0 0 0 0 0 0 0 0 3 0 0 0 0 0 0 0 2 1 0 1 2 5 3 0 0 4 4 3 2 2
5 2 4 4 3 3 2 0 0 0 0 0 0 0 2 1 5 1 1 4 0 0 0 0 0 0 2 5 3 1 1 1 1 0 0 3 0 2 2 2 2 1 1
8 9 9 7 7 7 2 1 0 3 2 3 4 3 3 3 3 4 5 5 6 6 3 1 0 5 7 7 5 5 3 3 2 0 0 2 0 0 2 1 1 0 0
11 12 9 6 8 10 7 9 7 6 8 7 4 3 4 5 3 2 2 3 4 4 3 2 2 4 3 1 1 2 2 1 1 0 0 1 0 0 0 0 0 0 0
7 7 4 5 7 6 7 7 4 7 8 6 4 2 2 3 4 3 1 5 7 5 2 1 1 0 0 0 0 0 0 0 1 0 0 0 0 0 0 0 0 0 0
4 2 3 2 1 2 2 4 4 5 7 6 3 2 2 2 2 2 1 2 3 4 1 0 0 0 0 0 0 0 0 0 0 0 0 0 0 0 0 0 0 0 0

GFSMA_con_mlcape_096.txt.gz
CAPE
859 716 671 531 445 460 325 291 252 100 133 42 108 49 68 149 135 95 104 165 253 223 175 112 100 70 27 19 19 11 7 0 4 2 1 5 4 3 2 3 1 0 2
794 699 610 538 468 403 278 275 105 24 13 16 20 68 45 54 93 57 63 82 60 27 8 14 27 26 26 22 15 15 13 3 11 2 1 11 4 2 2 3 2 4 4
803 755 639 591 508 353 240 80 69 28 14 51 20 27 41 31 28 36 17 0 9 0 0 5 16 23 18 10 15 13 7 4 5 6 13 8 6 1 3 3 2 1 3
913 812 736 653 496 367 239 112 57 43 8 2 18 19 25 20 19 26 7 0 0 0 0 1 13 11 11 4 4 4 1 5 8 2 3 8 3 2 2 2 0 0 0
910 808 721 640 541 380 246 117 54 29 9 3 6 16 27 28 3 12 4 0 0 0 0 1 8 6 9 10 4 4 5 2 2 3 7 8 10 7 4 2 0 0 0
992 856 685 577 441 271 154 106 75 4 3 0 0 23 26 19 0 0 0 0 0 0 0 0 0 7 11 11 11 11 8 6 3 2 3 1 6 8 5 1 0 0 0
764 730 661 498 386 309 164 55 18 0 0 3 14 45 5 0 0 0 0 0 0 0 0 0 0 1 8 5 4 16 7 11 11 5 5 2 1 8 5 3 1 0 0
466 648 542 438 364 318 159 65 29 2 8 5 3 0 0 1 0 0 0 0 0 0 0 0 0 0 0 0 0 2 2 14 9 7 4 3 3 5 5 6 4 2 1
346 432 423 356 273 216 135 79 21 12 14 7 2 0 0 1 1 0 0 0 0 0 0 0 0 0 0 0 0 0 0 3 7 5 9 5 6 6 6 1 2 2 1
388 368 344 287 230 148 97 60 35 20 20 20 17 0 0 0 0 1 0 0 0 0 0 0 0 0 0 0 0 0 0 0 0 0 1 4 0 0 0 0 0 0 0
245 238 291 212 168 102 68 56 25 7 23 20 9 1 0 0 0 0 0 0 0 0 0 0 0 0 0 0 0 0 0 0 0 0 0 0 0 0 0 0 0 0 0
89 168 141 144 112 73 60 86 45 9 8 20 9 5 0 0 0 0 0 4 0 0 0 0 0 0 0 0 0 0 0 0 0 0 0 0 2 24 39 33 29 32 23
55 134 124 129 100 81 52 35 76 35 13 5 8 3 0 0 0 0 0 5 4 0 0 0 0 0 0 0 0 0 0 0 0 0 0 0 1 3 11 68 104 95 88
57 53 105 105 68 25 6 19 38 61 11 3 0 3 1 0 0 0 0 2 0 0 0 1 0 0 0 0 0 0 0 0 0 0 0 0 0 0 0 0 6 32 67
21 20 20 0 0 0 0 2 35 31 20 4 3 2 1 0 0 0 0 7 6 20 5 14 14 14 10 3 0 0 0 0 0 0 0 0 0 0 0 0 1 1 7
0 0 0 0 1 2 2 4 12 3 5 15 2 7 1 0 0 1 2 18 31 52 56 57 65 41 18 16 15 11 13 10 6 7 10 3 0 0 0 1 3 0 0
0 0 0 0 1 0 2 4 1 1 31 1 1 10 1 0 0 0 3 9 22 22 20 19 9 0 33 55 51 44 40 45 23 11 0 0 0 0 0 0 0 0 0
0 0 0 0 1 2 2 1 0 0 5 5 1 1 3 1 0 1 3 5 2 7 0 0 0 0 2 2 31 43 32 11 2 0 0 0 0 0 0 0 0 0 1
1 0 0 0 0 1 2 0 0 0 0 0 2 1 1 1 0 0 0 4 0 0 0 0 0 0 7 6 9 2 0 0 0 0 2 10 9 6 5 4 3 3 3
45 3 1 1 0 1 1 0 0 0 0 0 2 2 1 1 0 1 2 0 1 0 0 1 0 0 1 5 0 0 0 0 4 2 2 2 3 3 3 3 3 2 3
0 0 0 0 0 0 0 0 0 0 0 1 0 0 0 0 0 0 0 0 1 0 0 1 0 0 0 0 0 0 0 2 4 0 4 5 3 3 3 3 2 2 2
3 2 2 2 2 4 1 0 0 0 0 0 0 0 0 0 0 0 0 0 0 0 0 0 0 0 0 0 3 1 1 2 1 0 1 4 0 3 2 2 2 0 0
8 9 8 6 12 9 6 2 0 0 0 2 3 4 5 8 6 6 13 10 11 8 2 0 0 2 3 7 2 2 3 2 1 0 1 4 0 0 0 1 0 0 0
11 11 12 10 12 10 10 11 7 6 6 6 5 4 7 6 4 4 5 6 9 6 7 8 8 6 4 2 1 2 2 3 0 0 0 3 0 0 0 0 0 0 0
7 7 5 6 7 7 7 6 5 6 10 7 3 2 3 3 5 2 1 9 12 7 2 2 1 0 0 0 0 0 0 0 0 0 0 0 0 0 0 0 0 0 0
3 2 4 3 4 5 4 2 2 3 6 5 3 3 3 3 3 4 2 3 5 5 2 0 0 0 0 0 0 0 0 0 0 0 0 0 0 0 0 0 0 0 0

GFSMA_con_mlcape_099.txt.gz
CAPE
1115 994 827 671 590 410 217 208 179 221 223 485 285 172 165 110 117 192 296 305 261 403 586 454 345 235 103 24 13 12 5 3 0 0 4 2 1 3 3 2 5 6 6
1008 915 713 588 489 382 245 215 157 258 307 240 193 52 53 59 67 130 188 217 180 325 453 398 408 307 156 41 18 16 14 10 6 3 2 2 1 2 2 5 6 7 5
903 805 664 521 397 300 263 197 113 124 105 81 17 53 55 43 57 49 87 140 185 166 206 122 164 196 124 55 18 19 14 12 6 2 4 3 5 5 7 6 9 8 7
783 688 634 510 306 275 262 221 124 50 24 13 1 22 50 57 54 53 39 66 82 45 0 5 25 32 30 26 19 22 15 6 6 9 7 10 11 9 8 8 7 6 5
710 679 578 454 342 340 327 274 133 81 32 15 26 10 25 38 38 35 34 21 18 0 0 0 6 12 16 11 19 13 7 6 16 10 6 3 9 10 10 9 8 4 4
818 734 573 489 433 459 326 275 202 78 42 24 6 9 15 25 16 30 17 5 2 0 0 0 2 7 6 5 14 14 18 19 20 14 9 7 2 6 6 7 6 5 4
869 731 566 513 486 456 277 250 135 77 12 2 6 8 3 15 13 21 16 1 0 0 0 0 0 1 3 9 9 12 29 19 18 9 15 5 3 2 2 6 6 5 3
902 737 559 502 406 323 149 123 75 26 4 1 5 4 0 1 1 6 2 1 0 0 0 0 0 0 0 7 4 8 23 29 5 9 5 8 3 4 3 7 2 2 5
836 748 416 407 374 304 184 61 75 36 14 1 0 3 1 0 1 0 1 1 0 0 0 0 0 0 0 0 0 0 3 9 11 11 6 6 6 4 4 2 0 3 6
543 400 341 260 320 240 149 92 33 12 1 2 4 7 0 0 0 0 1 0 0 0 0 0 0 0 0 0 0 0 0 0 1 7 7 7 3 3 2 1 0 2 4
366 182 190 224 211 178 128 66 21 4 1 0 5 4 4 0 0 0 0 1 0 0 0 0 0 0 0 0 0 0 0 0 0 0 0 8 2 0 0 0 0 0 0
248 225 203 213 230 136 76 63 40 3 1 2 12 16 15 1 0 0 0 0 0 0 0 0 0 0 0 0 0 0 0 0 0 0 0 0 0 1 0 2 6 6 7
161 163 90 115 127 69 29 52 31 0 1 4 6 5 1 0 0 0 0 1 1 0 0 0 0 0 0 0 0 0 0 0 0 0 0 0 0 0 6 34 64 69 81
93 48 58 97 35 30 44 31 49 21 4 11 9 12 5 0 0 0 0 0 0 0 0 0 0 0 0 0 0 0 0 0 0 0 0 0 0 0 0 0 13 42 66
58 48 29 17 22 63 33 53 41 21 19 10 3 19 1 0 0 0 0 0 0 0 0 4 17 0 0 2 0 0 0 0 0 0 0 0 0 0 0 0 0 0 0
44 11 11 0 2 0 0 0 0 2 15 15 16 10 2 1 0 0 0 0 0 1 8 17 14 21 13 7 2 2 0 0 0 0 0 0 0 0 0 0 0 0 0
38 30 7 0 0 0 0 0 2 2 6 6 7 4 1 1 0 0 0 0 0 2 18 11 21 34 44 27 7 1 7 1 0 0 0 0 0 0 0 0 0 0 0
35 1 0 0 0 0 0 0 1 0 1 1 3 28 15 1 1 0 0 0 0 0 13 10 11 21 33 43 34 22 6 1 0 0 0 0 0 0 0 0 0 0 0
3 0 0 0 0 0 1 0 0 0 0 0 0 28 0 1 1 1 0 0 0 0 4 0 9 0 3 0 1 0 0 0 0 1 2 4 4 4 5 5 6 6 5
1 0 0 0 0 1 1 0 0 0 0 0 1 13 3 11 3 1 1 0 0 0 0 0 2 0 0 0 0 0 0 3 5 2 4 5 5 5 3 3 3 3 3
0 0 0 0 0 0 0 0 0 0 0 0 0 1 0 0 0 0 1 0 0 0 1 0 0 0 0 0 0 0 0 1 3 1 5 4 3 3 2 2 2 1 0
2 1 1 1 1 4 3 0 0 0 0 0 0 1 3 1 0 0 0 0 0 0 0 0 0 0 0 0 0 0 0 1 1 0 3 3 2 3 2 2 1 0 0
8 6 8 7 11 8 5 1 0 1 1 4 5 5 4 9 6 6 10 7 9 6 2 0 0 0 0 2 1 1 1 1 3 1 2 4 1 2 0 1 0 0 0
11 13 12 12 13 14 9 5 4 5 5 5 6 7 7 7 7 5 4 10 12 10 6 10 11 10 6 5 1 1 1 3 0 0 0 4 0 1 0 0 0 0 0
6 7 6 7 8 8 5 4 3 4 8 9 4 3 4 5 6 6 5 8 13 12 4 4 4 5 1 0 0 0 1 0 2 0 0 0 0 0 0 0 0 0 0
4 2 1 3 4 6 6 3 3 4 7 7 4 3 2 4 5 4 6 7 10 5 0 0 0 0 0 0 0 0 0 0 0 0 0 0 0 0 0 2 0 0 0

GFSMA_con_mlcape_102.txt.gz
CAPE
1414 1174 1029 945 695 492 360 273 200 249 226 309 366 329 417 318 204 160 271 440 454 437 821 705 465 375 227 94 7 6 7 6 1 0 0 3 2 4 4 1 3 1 2
1388 1152 1058 905 701 466 255 186 179 145 220 237 253 306 166 158 75 85 84 195 231 294 460 500 521 440 301 103 15 13 12 7 5 5 2 2 2 2 0 5 3 2 2
1270 1074 983 779 632 389 265 74 103 96 105 225 243 169 121 57 46 32 25 48 102 147 213 256 335 322 235 126 27 17 11 11 10 2 5 1 2 2 1 2 1 2 4
1145 1009 893 717 419 337 298 113 116 135 98 170 103 91 35 14 7 31 31 48 60 114 148 246 262 138 86 97 31 20 10 10 10 14 8 6 5 2 3 2 8 4 0
1019 973 910 634 338 346 270 171 150 153 77 69 20 41 24 21 20 22 43 46 30 46 64 78 86 87 58 27 32 22 21 15 11 11 9 11 3 4 2 3 5 7 6
803 788 755 575 348 292 227 195 210 146 93 14 10 23 17 18 33 33 32 28 20 18 13 16 8 4 12 16 20 23 25 11 19 17 12 9 2 3 4 2 5 5 4
678 712 599 467 335 337 246 272 188 205 118 17 1 7 4 6 5 14 26 13 7 7 0 1 0 0 7 8 8 9 20 11 25 29 16 10 2 2 2 1 7 8 4
679 744 604 535 440 472 335 311 180 166 107 23 8 4 1 1 10 20 11 20 8 2 1 0 0 0 0 2 0 8 14 26 16 16 14 10 5 4 4 1 2 7 4
869 876 673 540 470 363 278 185 140 91 96 4 1 2 0 4 0 0 4 13 3 1 1 0 0 0 0 0 1 9 10 30 28 22 19 12 7 6 4 3 3 2 2
971 949 748 626 540 271 246 159 117 60 20 20 1 0 0 0 0 0 1 0 1 1 1 0 0 0 0 0 0 0 0 7 16 16 11 15 6 5 5 3 1 2 5
868 933 690 574 335 198 195 130 57 37 36 28 1 0 0 0 0 0 0 1 1 1 1 0 0 0 0 0 0 0 0 0 0 6 9 9 8 4 3 1 3 3 0
835 646 515 351 190 173 124 74 56 9 4 0 0 1 0 0 0 0 0 1 0 0 0 0 0 0 0 0 0 0 0 0 0 0 0 2 11 5 0 1 2 0 0
531 383 330 170 123 155 111 75 25 1 0 2 2 1 0 0 0 0 0 0 0 1 0 0 0 0 0 0 0 0 0 0 0 0 0 0 0 3 2 5 5 6 0
413 287 253 121 130 97 86 58 35 0 1 3 5 2 1 0 0 0 0 0 0 1 0 0 0 0 0 0 0 0 0 0 0 0 0 0 0 0 0 0 9 19 18
128 166 115 88 55 46 59 37 1 4 2 3 10 12 6 1 0 0 0 0 0 1 1 0 0 0 0 0 0 0 0 0 0 0 0 0 0 0 0 0 0 0 0
98 118 70 53 43 42 22 13 22 26 36 24 19 9 14 5 0 0 0 0 0 0 0 0 0 3 3 1 0 1 0 0 0 1 0 0 0 0 0 0 0 0 0
58 53 16 20 6 9 5 4 1 0 0 0 6 19 14 10 1 1 0 0 0 0 1 0 0 15 13 9 7 3 0 0 0 0 0 0 0 0 0 0 0 0 0
6 0 2 9 1 1 0 0 0 0 0 0 0 3 0 2 2 0 1 0 0 0 0 0 1 8 18 29 34 6 0 0 0 0 0 0 0 0 0 0 0 0 2
2 10 16 4 0 0 0 0 0 0 0 2 1 2 1 3 19 2 2 1 0 0 0 0 3 0 1 18 16 0 0 4 5 3 7 6 4 4 5 5 5 6 6
21 0 0 1 0 0 0 0 0 0 0 0 0 0 1 1 18 3 1 1 1 1 1 0 3 0 0 1 2 0 1 7 7 5 5 5 5 5 5 5 4 5 4
0 0 0 0 0 0 0 0 0 0 0 0 0 3 4 0 0 0 0 0 1 1 1 0 5 1 1 1 0 1 0 4 7 6 6 5 3 3 2 2 3 2 1
1 1 1 1 1 0 2 0 0 0 0 1 0 2 2 9 11 2 1 1 0 1 0 1 1 0 0 0 0 0 0 1 0 0 3 4 2 2 2 2 1 0 0
8 9 9 7 7 8 5 1 0 0 2 5 5 5 4 4 7 8 3 3 7 4 1 0 2 1 0 0 0 0 0 2 3 3 1 3 1 2 2 2 0 0 0
12 12 12 11 11 8 6 8 5 6 6 7 7 6 7 7 6 3 7 13 17 13 9 12 9 9 8 7 2 1 2 6 3 0 0 2 1 1 0 0 2 2 0
6 6 5 6 7 6 4 5 5 9 9 10 5 4 4 4 6 6 4 8 11 9 5 7 5 3 0 1 3 0 2 0 1 1 0 0 0 0 0 0 0 1 0
6 4 3 3 2 4 2 4 3 6 8 8 4 4 5 5 5 4 3 5 6 4 3 1 0 0 0 1 0 0 0 0 0 0 0 0 0 0 0 0 0 0 0

GFSMA_con_mlcape_105.txt.gz
CAPE
1604 1621 1655 1583 1487 1382 1255 1064 1014 938 1029 1079 1076 1023 740 733 564 452 335 157 156 259 261 468 66 491 334 121 44 10 3 2 0 0 0 0 1 5 3 2 3 3 3
1504 1456 1461 1399 1351 1267 1117 1013 925 852 870 817 801 718 793 617 331 133 75 31 84 103 256 516 343 465 327 157 19 3 4 2 4 0 0 0 2 2 3 2 2 2 5
1264 1344 1370 1270 1085 1037 971 798 662 580 636 518 398 505 701 590 243 71 15 21 34 49 60 279 369 386 324 201 15 4 11 6 7 10 3 3 3 4 2 3 2 3 3
1278 1231 1277 1213 888 746 798 682 441 412 408 405 381 403 573 347 79 22 12 17 29 23 41 197 154 188 214 203 66 13 17 3 7 8 5 3 5 3 2 2 5 3 2
1203 1182 1268 1127 745 633 631 597 446 417 328 229 353 398 527 197 18 1 15 7 30 42 41 35 37 140 154 117 50 29 17 5 11 10 7 9 6 4 3 2 5 2 4
1123 1214 1251 1008 712 540 524 448 401 304 240 243 173 169 210 126 49 21 3 4 15 34 23 18 76 145 68 41 2 32 23 14 15 13 10 12 8 4 6 3 6 6 7
1057 1170 1153 940 715 642 430 403 322 228 170 143 137 118 35 57 39 34 30 20 37 22 19 24 58 110 74 36 9 18 28 26 16 17 17 19 9 5 7 4 3 5 3
887 1024 1039 796 601 514 370 355 285 246 166 97 69 23 12 5 6 15 35 48 53 30 7 15 27 36 42 13 9 13 20 29 19 16 21 9 11 5 7 3 4 3 3
878 930 901 649 493 435 421 448 319 304 172 73 46 29 2 0 0 3 2 15 29 25 11 1 14 19 2 1 0 5 6 16 22 29 19 7 6 6 9 8 7 3 6
892 874 787 613 520 571 566 427 364 284 161 109 44 25 0 1 11 0 2 2 21 10 4 3 0 8 0 0 0 0 0 5 17 21 13 14 10 4 4 4 2 3 7
966 817 741 705 731 656 519 381 234 195 148 97 64 18 2 0 0 0 0 0 0 2 3 1 1 1 4 0 0 0 0 1 6 16 16 13 14 6 4 5 3 2 5
1031 891 743 732 641 661 511 371 166 170 119 84 64 47 8 0 0 0 0 1 2 0 1 1 1 0 2 1 0 0 0 0 0 8 15 9 10 9 5 3 2 4 4
1042 869 796 698 819 656 446 260 144 109 83 58 22 25 14 3 1 0 9 8 2 1 1 1 1 1 0 0 0 0 0 0 0 0 0 7 13 14 10 9 9 8 4
859 708 659 654 715 441 226 204 185 112 56 27 15 1 1 1 2 0 1 18 5 1 1 0 1 0 0 0 0 0 0 0 0 0 0 0 0 0 8 18 18 16 12
658 452 479 427 415 222 168 168 111 117 64 5 1 1 2 6 23 3 0 0 1 1 1 0 0 1 0 0 10 0 0 0 0 0 0 0 0 0 0 0 0 0 0
508 335 277 243 164 98 124 89 92 82 27 1 0 2 7 21 19 26 28 11 0 0 2 0 0 0 0 1 18 8 0 0 0 0 0 0 0 0 0 0 0 0 0
187 155 126 118 128 73 75 73 76 20 1 3 4 4 10 35 17 24 19 4 2 7 4 0 0 0 0 0 9 26 23 3 0 0 0 0 0 0 0 0 0 0 0
109 86 50 56 29 28 25 21 9 6 5 8 6 4 7 12 13 24 3 2 2 1 6 0 1 0 0 0 53 51 2 3 0 0 0 0 0 0 0 0 0 0 0
78 51 37 17 3 0 8 5 1 1 2 3 3 5 2 0 2 3 2 1 2 1 0 0 0 0 0 1 26 2 2 6 7 6 5 5 5 4 4 4 3 2 3
26 15 2 1 0 0 0 0 0 1 0 1 0 0 0 0 0 5 2 1 1 1 1 0 0 0 0 8 0 0 2 7 8 6 6 6 5 5 5 5 6 7 7
1 2 0 0 0 0 0 0 1 0 0 0 0 0 1 8 6 0 2 2 1 2 2 1 1 1 1 2 0 3 4 9 7 6 7 5 4 4 3 3 3 2 2
2 5 1 0 1 3 3 0 0 0 0 0 0 2 4 2 8 12 4 1 0 1 2 2 1 1 0 1 0 1 3 3 2 2 5 4 2 1 1 2 3 1 1
11 9 9 6 7 9 6 2 1 1 3 5 4 5 3 3 2 3 10 7 8 6 1 0 0 1 0 0 0 1 5 3 1 2 1 4 2 2 1 1 1 1 0
5 8 13 12 10 6 5 7 6 7 8 7 6 6 8 7 7 2 8 12 11 10 9 13 9 12 6 4 0 1 1 6 4 0 0 4 2 2 0 1 2 2 2
2 6 5 5 6 5 5 5 5 6 8 7 5 6 5 6 8 7 2 6 11 12 7 6 2 1 5 7 7 0 3 0 3 0 0 1 1 1 0 0 0 1 1
2 2 5 3 5 6 5 1 1 3 6 6 4 5 6 7 4 3 4 2 4 3 3 0 1 1 2 1 0 0 2 1 1 0 0 0 0 0 0 0 0 1 1

GFSMA_con_mlcape_108.txt.gz
CAPE
2192 1986 1752 1799 1937 1896 1757 1748 1560 1549 1404 1319 1251 1271 1098 1054 974 1114 888 219 174 187 205 321 349 553 368 301 286 138 28 0 0 0 0 0 0 0 0 0 2 2 3
2250 2045 1956 2068 1888 1895 1856 1669 1637 1602 1405 1225 1171 1179 1014 1006 884 841 742 280 129 101 111 214 117 213 295 272 207 69 0 0 0 0 0 0 0 0 0 3 2 3 1
1981 1887 1848 1854 1981 1827 1885 1760 1683 1536 1392 1120 1119 1065 898 814 753 794 434 84 25 0 11 32 15 13 317 288 152 40 0 0 0 0 0 0 0 0 3 2 2 2 3
1871 1824 1730 1639 1745 1954 1975 1749 1657 1471 1389 1219 1063 911 794 793 666 666 251 37 29 71 24 8 23 102 328 276 226 60 0 0 3 3 1 0 3 4 1 3 2 4 1
1498 1445 1465 1562 1458 1449 1739 1697 1440 1424 1172 978 928 860 562 668 623 456 58 14 20 93 133 49 5 75 229 192 177 125 21 3 4 5 3 2 6 3 2 4 2 3 5
1321 1390 1435 1468 1228 1297 1372 1400 1181 1157 1021 810 588 539 506 529 492 428 158 28 3 69 38 47 11 96 18 124 148 104 54 6 1 3 7 7 7 8 4 4 3 5 3
1396 1342 1416 1399 1182 1199 1154 1166 1097 952 786 615 301 183 216 357 340 338 164 19 59 70 59 53 48 49 23 60 73 41 61 14 7 0 8 10 11 6 5 2 4 4 4
1319 1333 1414 1336 1196 1275 963 1017 740 566 593 547 279 118 94 102 191 235 153 60 61 74 90 59 16 44 58 133 115 6 42 24 24 7 10 7 8 4 3 4 4 4 5
1305 1271 1303 1415 1268 1316 972 884 642 560 396 278 349 108 8 27 1 30 98 58 140 104 64 133 40 21 36 79 91 25 10 20 19 16 10 9 6 5 4 5 6 5 6
1585 1391 1372 1507 1401 1210 968 870 667 809 513 320 231 246 0 10 28 21 6 100 143 110 59 129 89 72 30 40 52 14 4 5 5 7 11 14 7 7 5 4 4 6 6
1403 1587 1449 1475 1365 1047 937 836 725 846 770 625 229 136 137 0 0 10 56 21 6 36 99 60 48 35 72 30 33 10 0 0 0 7 24 21 8 6 4 6 5 8 7
1242 1401 1392 1465 1315 1008 804 832 1126 970 610 665 553 404 200 36 0 2 17 17 37 17 8 13 8 6 6 11 18 8 0 0 0 3 15 14 9 10 8 4 3 6 6
1280 1237 1270 1254 1147 977 1138 1247 1133 873 724 535 497 443 378 374 82 13 19 38 36 25 3 3 2 3 3 1 1 0 0 0 0 0 13 11 8 12 7 6 4 3 6
1298 1223 1155 1268 1242 1237 1206 1131 1014 857 679 502 345 302 133 90 11 6 1 7 1 0 1 0 2 3 2 2 0 0 4 0 0 0 0 5 4 10 9 7 7 8 10
1397 1159 1122 1067 980 1026 866 906 892 607 445 365 293 148 71 45 29 24 3 0 9 5 0 3 4 1 3 3 0 0 0 0 0 0 0 0 0 0 6 12 11 14 14
1500 1161 1021 937 856 734 571 717 622 503 196 307 204 139 36 42 9 13 65 7 22 2 5 4 1 3 3 2 0 18 19 29 0 0 0 0 0 0 0 0 0 3 6
1249 1091 962 680 681 571 427 349 235 269 222 233 148 99 26 53 4 24 56 41 22 27 40 3 17 22 3 5 1 0 29 51 44 0 0 0 0 0 0 0 0 0 0
963 754 703 543 413 395 321 219 190 175 167 151 64 16 24 10 9 34 23 10 22 32 49 13 3 11 3 2 0 2 27 57 39 0 0 0 0 0 0 0 0 0 0
449 412 390 371 294 251 202 145 120 84 99 76 40 48 39 57 47 41 26 5 18 13 22 30 16 3 2 2 2 0 0 1 4 1 0 0 0 0 0 0 0 0 0
158 152 153 136 99 72 45 18 7 1 10 1 0 0 0 0 0 0 1 2 3 2 4 8 3 1 1 2 0 0 1 5 6 6 6 5 6 6 5 4 5 5 4
6 6 12 11 3 2 1 3 3 2 1 0 0 0 2 3 4 3 1 1 3 2 2 2 1 1 2 2 0 2 3 6 6 5 7 5 5 6 5 5 6 7 7
11 4 6 5 1 3 1 0 4 1 0 0 0 4 7 7 6 5 7 10 3 0 2 1 1 2 1 0 0 2 3 5 2 2 5 5 3 4 3 3 4 4 4
5 9 6 11 12 11 2 1 0 2 2 5 6 8 5 6 7 6 1 2 4 8 6 0 1 1 1 0 1 1 1 1 1 4 1 3 1 1 2 2 3 3 2
4 2 2 2 5 7 9 7 6 8 10 6 7 7 7 7 6 5 4 7 14 14 11 14 13 13 9 0 1 1 2 6 8 0 0 3 2 3 0 1 2 2 2
3 3 3 5 3 1 3 7 6 10 7 8 6 6 7 7 6 6 6 9 12 10 8 8 4 1 2 5 5 2 5 2 5 0 0 3 1 1 0 0 1 2 2
4 2 4 2 2 5 4 3 1 3 7 8 3 3 4 5 5 3 6 4 5 7 2 0 5 3 3 3 0 1 3 4 2 0 1 2 0 0 0 0 0 0 1

GFSMA_con_mlcape_111.txt.gz
CAPE
1953 1658 1646 1526 2170 1987 1990 1895 1779 1688 1544 1343 1381 1324 1371 1212 1219 1097 1092 376 258 374 449 432 501 347 323 532 353 238 143 78 0 0 0 0 0 0 0 0 0 1 3
1951 1844 1732 1542 1378 1842 2082 1920 1797 1717 1637 1505 1386 1423 1329 1156 1056 972 838 815 209 243 356 332 258 70 160 489 319 182 110 41 0 0 0 0 0 0 0 0 0 4 3
2296 2251 1977 1690 1435 1410 2195 2084 1933 1846 1782 1554 1369 1401 1207 1205 1042 936 764 758 272 84 105 84 90 30 20 123 267 210 137 71 0 0 0 0 0 0 0 0 3 3 0
2117 2412 2173 2038 1965 1661 1734 1969 1893 1752 1629 1561 1375 1217 1115 1117 946 869 807 642 405 113 17 7 0 0 1 19 186 179 177 36 0 0 0 0 0 0 0 2 2 2 3
2109 2220 2349 2040 2061 1947 1737 1928 1874 1737 1694 1471 1448 1154 1058 972 968 743 587 648 347 123 48 29 5 0 18 14 61 164 187 39 0 0 0 0 0 0 3 4 3 3 3
2236 2207 2159 2088 1967 1871 1924 1873 1872 1763 1675 1258 1176 863 882 1055 823 619 523 422 384 203 63 29 4 0 2 24 28 172 209 123 3 1 2 0 0 4 3 3 3 3 4
2094 2155 2065 1827 1844 1663 1729 1762 1735 1409 1467 1456 1302 1032 803 688 549 414 457 439 343 150 43 40 21 11 26 22 28 177 211 157 24 7 0 0 0 3 2 3 2 4 3
2205 2108 2085 1816 1888 1554 1584 1494 1441 1297 1285 1376 842 638 384 403 345 489 484 405 359 274 69 55 18 22 67 46 22 46 151 153 19 12 0 0 1 5 4 4 4 3 5
2328 2200 1816 1938 1917 1568 1355 1467 1299 1185 1139 1103 822 371 144 83 172 287 408 375 349 246 162 127 52 40 39 50 38 32 68 72 25 10 2 0 0 6 6 3 3 2 5
2049 2184 2096 1774 2022 1703 1510 1416 1266 1254 1107 607 912 664 445 303 199 172 292 356 370 203 246 133 96 71 41 34 30 96 31 20 18 9 8 0 2 7 5 6 4 1 4
1754 1701 1714 1903 1931 1790 1730 1527 1222 1261 1041 805 664 511 616 355 263 198 199 347 134 274 134 180 172 108 121 56 30 38 20 5 3 12 17 3 0 8 9 5 5 4 5
1635 1626 1566 1528 1770 1943 1631 1697 1481 1136 1066 969 711 459 356 344 176 243 144 82 113 81 94 122 160 113 85 80 84 12 0 7 0 3 8 6 1 8 5 5 6 5 5
1466 1673 1332 1647 1585 1756 1709 1718 1555 1092 1081 1170 980 650 407 429 207 170 259 179 106 129 51 0 46 92 37 46 46 3 0 0 0 0 2 4 10 7 6 4 4 5 6
1424 1795 1462 1555 1628 1723 1779 1708 1376 1078 951 1121 911 835 685 528 534 390 253 161 40 122 90 31 1 1 15 7 1 0 0 0 0 0 0 0 17 10 5 5 7 3 0
1404 2038 1571 1406 1492 1583 1629 1623 1412 1424 1208 424 874 894 631 538 412 278 164 49 48 1 1 0 14 2 2 5 4 0 0 0 0 0 0 0 10 8 9 11 8 7 5
1379 1829 1821 1485 1413 1477 1470 1512 1519 1575 1308 1047 827 617 447 368 265 277 199 130 58 9 6 7 16 13 3 1 4 1 0 0 0 0 0 0 0 4 7 6 8 8 12
1232 1367 1586 1415 1308 1333 1294 1288 1265 1263 1004 779 611 485 421 374 239 158 116 83 80 45 26 19 14 26 22 2 5 2 1 0 0 0 0 0 0 0 0 0 2 8 18
1080 1217 1461 1285 1164 1171 1063 1055 1167 1051 768 590 457 379 375 289 250 185 111 113 83 64 39 20 18 21 28 0 1 0 2 3 18 0 0 0 0 0 0 0 0 0 0
746 815 1193 1304 1111 895 842 1033 1154 827 444 377 341 297 233 204 147 100 76 56 74 74 15 13 10 9 24 11 4 1 0 0 0 0 0 0 0 0 0 0 0 0 0
284 628 855 814 766 690 645 733 675 539 141 136 184 125 69 53 37 13 2 15 21 19 9 4 6 13 5 1 0 0 0 4 4 4 5 4 1 0 0 0 0 0 0
8 4 57 134 332 428 437 473 383 309 78 10 0 0 0 0 0 0 0 0 1 3 3 4 11 4 1 1 0 2 2 5 7 5 9 9 6 5 6 6 8 6 4
13 12 11 7 4 1 0 41 57 4 0 0 0 2 4 9 6 6 5 6 6 0 0 5 2 3 0 0 2 1 3 3 1 3 8 8 2 4 3 3 4 5 5
6 8 5 7 13 12 5 0 0 1 2 3 4 5 7 6 6 5 4 4 7 9 9 4 0 0 0 1 0 3 4 2 1 4 2 4 0 1 1 3 3 2 2
3 3 5 4 0 1 6 9 11 10 10 10 6 7 8 9 7 3 5 8 11 13 12 12 11 13 14 5 0 0 2 4 5 1 0 3 2 3 1 1 1 1 2
5 5 3 2 5 1 1 1 3 8 8 8 6 5 7 7 3 6 6 10 10 9 6 7 10 8 2 3 2 0 1 1 5 1 0 3 3 1 0 1 1 1 1
1 2 2 1 3 5 4 2 0 2 2 4 3 3 6 6 4 3 5 5 6 6 5 2 2 1 7 9 0 2 2 3 2 1 1 0 1 0 0 0 0 0 2

GFSMA_con_mlcape_117.txt.gz
CAPE
1552 1946 1897 1859 1720 1652 1517 1384 1259 1271 1231 1079 1026 1201 1218 1063 986 884 604 410 405 654 835 1137 880 681 457 261 245 46 12 178 197 270 160 38 0 0 0 0 0 0 0
1512 1563 1701 1768 1608 1655 1636 1460 1424 1422 1437 1150 1147 1193 1221 1117 1168 924 670 451 283 280 625 1097 952 807 623 368 212 76 13 108 188 258 176 44 0 0 0 0 0 0 0
2033 1657 1799 1678 1723 1819 1752 1647 1393 1345 1410 1148 1201 1014 982 1064 1065 1004 744 462 315 137 140 630 743 770 699 450 281 95 31 18 19 137 98 52 0 0 0 0 0 0 0
1923 2033 1532 1801 1427 1888 1856 1789 1546 1391 1279 1054 1168 1222 1080 1038 1028 958 833 562 358 275 74 259 438 384 193 203 107 27 8 0 99 109 54 32 0 0 0 0 0 0 0
2190 1947 1839 1825 1754 1568 1791 1856 1573 1405 1295 1032 1246 1280 1101 1089 980 888 773 614 368 185 25 9 86 166 108 45 7 0 0 14 0 88 41 16 0 0 0 0 0 0 0
1481 1829 1925 1828 1722 1693 1783 1780 1691 1414 1229 1210 1327 1319 1152 987 942 859 752 609 434 225 40 0 0 0 0 3 34 12 6 23 77 81 25 0 0 0 0 0 0 0 0
1329 1476 1735 1680 1660 1604 1446 1690 1695 1522 1343 1223 1259 1087 1058 893 787 676 676 644 522 272 139 62 0 0 0 0 0 0 3 45 84 102 15 0 0 0 0 0 0 0 1
43 1141 1406 1572 1607 1471 1024 1308 1512 1511 1465 1435 1037 936 690 744 790 763 679 570 472 374 190 86 3 0 0 0 0 0 33 91 70 132 50 2 0 0 0 0 0 0 5
0 123 1160 1179 1311 1293 1034 902 967 1318 1343 1307 1140 770 411 441 347 558 666 533 371 305 184 107 18 0 0 0 0 0 0 0 42 150 99 10 0 0 0 0 1 4 7
0 0 0 643 1169 1097 869 676 786 1026 1028 817 1048 838 213 114 58 16 258 400 404 318 199 120 53 0 0 0 0 0 0 1 0 13 122 29 0 0 0 0 2 7 4
0 0 0 0 630 1002 879 775 685 1034 921 799 809 1094 732 223 131 76 32 214 365 315 278 184 104 17 0 0 0 0 0 0 0 1 51 58 0 0 0 0 6 6 5
0 0 0 0 0 879 1009 975 888 945 1171 1178 823 687 792 726 461 373 156 237 230 279 318 250 170 88 22 0 0 0 0 0 0 7 59 23 0 0 0 0 1 6 11
0 0 0 0 0 92 1014 1077 832 874 974 1136 863 773 727 709 579 479 299 223 214 243 224 243 197 156 82 22 0 0 0 0 0 0 28 20 2 0 0 0 0 2 9
1 0 0 0 0 0 473 892 745 754 1125 1149 1008 889 745 663 618 515 394 220 121 124 167 200 188 181 136 109 78 0 0 0 0 0 0 24 23 2 0 0 0 0 1
1 1 1 1 0 0 16 910 799 613 1106 1385 1260 1012 808 640 641 513 317 207 136 59 101 100 125 136 109 88 112 54 18 0 0 0 0 0 0 0 0 0 0 0 0
4 2 0 0 2 1 0 840 647 529 902 1163 1302 1157 872 583 387 391 273 169 116 79 77 93 91 80 51 30 34 16 0 0 0 0 0 0 0 0 0 0 0 0 3
4 4 4 2 2 2 0 801 892 511 812 914 1133 1116 893 515 430 400 312 80 70 115 112 94 45 49 28 1 0 0 0 0 0 0 0 0 0 0 0 0 0 1 9
3 3 5 4 1 1 1 636 1309 1053 829 880 1143 1033 746 494 466 217 68 0 0 31 132 98 33 6 18 10 0 0 0 0 0 0 0 0 0 0 0 0 0 3 2
3 3 4 3 2 2 1 397 1045 961 1019 820 1073 979 921 546 290 120 14 80 26 95 73 35 34 37 16 12 0 1 1 0 0 0 0 0 0 0 0 0 0 7 13
4 6 8 9 2 0 96 556 589 537 516 802 855 867 842 550 182 48 62 94 142 137 93 108 77 59 52 4 11 1 0 0 0 0 0 0 0 0 0 0 0 0 0
2 2 4 7 4 4 5 0 149 378 515 570 168 57 75 71 61 119 52 47 56 37 23 42 32 47 20 4 2 0 0 0 2 3 1 4 3 0 1 0 0 0 0
2 4 1 2 5 9 10 0 0 295 15 1 0 9 13 7 3 1 0 0 0 0 0 0 0 1 0 1 1 0 0 0 0 3 3 4 5 4 5 1 0 0 0
0 2 1 1 1 2 7 15 2 13 12 8 9 10 12 18 13 11 16 11 5 1 1 0 0 0 0 1 3 0 0 0 0 6 0 3 2 4 3 2 3 3 3
0 0 2 2 2 4 3 2 3 7 7 5 4 5 7 11 9 12 15 13 17 9 8 7 7 15 11 9 6 2 1 3 7 3 0 2 2 4 2 1 3 6 11
0 0 0 0 1 3 4 3 1 5 4 4 3 3 3 2 2 5 10 16 15 15 6 11 10 10 9 8 1 4 0 0 2 2 2 1 3 3 2 2 1 3 2
1 0 1 0 1 0 2 4 1 1 3 4 2 0 2 5 3 3 1 5 5 5 4 2 2 2 4 5 6 1 2 1 0 3 1 0 3 0 1 0 0 0 2

GFSMA_con_mlcape_123.txt.gz
CAPE
1607 1509 1477 1373 1296 1256 1251 1341 1436 1286 1206 1046 777 601 491 426 575 428 285 443 574 795 899 1191 1006 1070 1016 922 767 643 470 277 162 195 164 86 85 221 230 145 69 2 0
1177 1190 1264 1239 1233 1183 1170 1119 1193 1198 1154 1012 845 691 568 529 697 620 386 377 434 360 297 146 946 961 982 1106 754 655 541 292 136 146 153 97 79 120 192 83 24 0 0
1202 1087 1116 1183 1215 1310 1174 1090 1103 1157 1150 996 851 730 654 564 684 662 474 393 349 349 238 223 713 920 959 974 751 610 530 345 158 136 133 71 100 58 105 73 19 0 0
1106 1174 1143 1107 1220 1128 1245 1341 1321 1201 1118 1038 905 693 710 629 713 684 529 489 449 412 200 213 567 609 798 956 757 609 470 360 185 88 17 6 60 74 80 36 5 0 0
33 145 175 166 598 758 895 1074 1188 1173 1030 960 925 839 691 639 725 775 597 498 427 337 214 136 73 306 494 516 553 599 570 414 91 2 0 55 67 121 77 20 0 0 0
0 7 0 0 0 91 398 660 926 1000 963 826 685 677 668 684 713 774 701 567 436 323 242 131 69 47 273 493 420 456 517 515 277 26 18 62 119 116 68 12 0 0 0
0 0 0 0 10 60 20 343 614 758 749 486 353 315 251 271 479 682 661 568 445 299 241 154 58 41 88 197 247 339 363 506 407 284 87 99 71 60 50 9 0 0 0
0 0 0 0 1 0 44 49 542 496 531 318 361 195 190 243 276 305 524 557 511 376 211 112 71 31 24 44 71 127 136 247 252 168 105 33 50 92 65 17 0 0 0
0 0 0 0 0 0 0 29 380 190 283 272 312 109 101 166 167 217 341 492 479 400 281 184 113 43 11 5 8 0 0 0 3 14 45 53 65 99 94 41 7 0 0
0 0 0 0 0 0 0 0 0 270 67 16 87 72 60 1 9 8 77 282 328 393 351 218 144 95 41 21 3 0 0 0 0 0 0 2 50 132 83 46 32 0 0
0 0 0 0 0 0 0 0 0 0 263 10 43 46 38 0 36 0 0 29 158 258 228 206 183 135 81 49 35 9 0 0 0 0 0 0 8 22 54 57 49 10 0
0 0 0 0 0 0 0 0 0 0 1 296 164 79 19 12 12 15 0 0 36 100 234 93 94 108 65 50 35 29 0 0 0 0 0 1 1 36 32 39 52 12 0
1 1 0 1 2 1 0 1 1 0 0 21 126 46 33 16 19 7 9 0 8 20 36 60 66 77 67 50 31 17 2 0 0 0 0 0 10 15 37 42 34 6 0
1 0 0 0 1 1 1 0 0 0 1 0 38 91 78 51 80 39 0 0 8 31 17 14 23 48 50 74 50 6 11 0 0 0 0 0 1 38 39 33 4 17 7
2 2 2 3 2 2 2 2 1 2 0 0 0 132 97 83 107 78 87 62 96 46 6 40 48 49 75 72 43 3 2 0 0 0 0 0 0 0 5 15 22 16 2
3 3 3 3 3 3 3 3 3 1 3 1 0 9 182 254 223 224 184 119 132 187 24 35 48 24 54 74 50 7 0 0 0 0 0 0 0 0 0 0 3 0 0
2 2 2 2 3 2 2 2 2 3 2 1 1 1 37 337 292 366 277 216 198 226 189 147 4 0 23 49 49 13 6 3 0 0 0 0 0 0 0 0 0 0 0
2 2 1 2 2 3 3 3 3 3 4 4 3 1 1 324 419 412 390 257 256 224 259 117 18 0 6 15 32 16 3 9 5 0 0 0 0 0 0 0 0 0 0
1 2 1 2 3 3 3 4 4 3 3 4 4 2 1 106 528 412 420 371 342 260 146 190 105 0 0 0 0 0 4 6 2 0 0 0 0 0 0 0 0 0 0
1 2 1 1 2 2 2 4 6 6 4 3 2 3 3 34 514 612 415 436 435 365 193 187 49 0 0 0 2 0 0 1 0 0 0 0 0 0 2 2 2 0 0
1 1 1 1 1 1 2 3 1 1 3 3 1 0 0 0 93 554 647 552 502 272 175 104 54 1 0 2 1 0 0 0 0 0 0 1 0 1 2 2 4 6 3
0 0 0 0 0 1 2 3 4 6 5 4 1 5 6 1 1 0 31 152 173 134 93 44 57 8 0 3 7 2 0 0 0 5 0 1 5 5 6 6 10 3 0
0 0 0 0 0 0 2 2 1 2 6 5 7 8 11 6 10 11 20 21 20 8 2 1 8 12 0 0 0 0 0 0 0 3 0 0 5 3 7 4 4 0 0
0 0 0 0 0 0 1 1 0 0 2 5 6 6 7 4 2 4 11 15 22 24 21 16 11 7 12 6 1 0 0 2 7 8 2 0 13 7 4 3 6 1 0
0 0 0 0 0 0 2 1 0 0 0 2 1 1 3 6 6 0 0 6 8 11 3 5 9 9 10 10 7 4 0 0 0 2 2 1 10 8 3 3 2 5 4
0 0 0 0 0 0 3 2 0 0 1 3 2 0 2 2 3 3 0 2 1 2 0 0 0 0 2 2 1 1 5 0 0 1 4 0 8 2 4 3 1 2 3

GFSMA_con_mlcape_126.txt.gz
CAPE
1373 1362 1202 1417 1338 1214 1235 1254 1309 1191 1107 1027 857 582 433 378 369 311 239 257 222 367 842 1292 1238 954 995 865 808 739 601 451 286 132 131 194 231 164 140 140 104 37 3
1349 1233 1098 1193 1440 1047 1156 1183 1105 1081 1000 1002 938 750 573 452 420 329 368 301 228 350 729 912 771 895 1259 1029 797 756 636 566 389 150 122 150 150 86 106 123 94 34 31
939 1014 798 972 758 801 812 918 1047 1055 939 1074 862 903 681 591 506 375 395 515 321 269 443 469 298 223 936 1037 840 795 766 610 405 173 115 136 110 112 58 106 93 43 29
129 108 180 513 615 710 869 995 994 932 960 836 864 919 743 703 604 496 380 532 414 236 233 205 262 153 570 899 1010 842 818 646 433 214 102 96 105 71 55 74 98 49 30
0 5 75 173 279 314 676 752 845 813 718 789 827 764 602 715 659 535 454 498 472 334 255 290 246 271 515 696 948 804 837 688 527 337 155 119 50 49 26 88 92 61 20
0 0 0 8 0 0 11 100 81 226 490 746 796 553 442 378 484 590 558 550 517 412 347 297 213 121 142 418 714 825 738 755 539 456 243 120 19 3 6 66 79 60 1
0 0 0 0 0 0 0 0 0 6 34 369 526 282 190 169 249 409 395 468 435 399 361 299 221 146 74 78 308 660 715 901 755 590 266 100 5 2 6 75 64 57 1
0 0 0 0 0 0 0 1 0 0 0 61 311 159 85 52 105 169 196 205 266 295 369 300 215 175 119 109 121 319 615 680 702 575 451 166 50 21 24 85 51 35 5
0 0 0 0 0 0 0 0 0 4 1 62 188 195 104 38 33 40 111 129 130 117 197 227 232 169 110 94 76 96 165 305 344 414 325 140 45 6 8 37 25 19 2
0 0 0 0 0 0 0 0 0 0 1 8 4 126 120 73 24 2 22 35 22 16 91 153 152 159 102 71 45 42 60 55 31 47 104 29 0 14 18 24 45 33 7
0 0 0 0 0 0 0 0 0 0 0 0 54 61 78 124 80 3 1 12 0 1 32 108 148 87 108 68 35 14 13 0 0 0 0 0 0 0 0 29 57 42 14
1 0 0 0 1 1 2 0 0 0 0 1 1 56 48 42 11 2 1 0 0 0 3 51 65 96 78 79 56 32 19 1 0 0 0 0 0 0 2 0 75 64 16
0 1 1 0 0 1 0 1 1 1 0 0 0 0 127 50 36 7 1 0 0 0 0 2 12 50 42 55 69 43 28 6 0 0 0 0 0 0 3 0 4 27 6
1 1 2 2 2 1 2 1 2 0 1 2 0 0 2 53 39 4 4 2 0 0 0 0 5 31 23 36 62 39 29 0 0 0 0 0 0 0 0 0 3 4 16
2 1 1 2 2 2 3 2 2 2 1 2 3 0 0 14 2 0 3 0 0 0 0 0 0 14 31 31 43 20 28 5 0 0 0 0 0 0 0 0 0 13 29
2 1 1 2 2 2 2 2 2 2 3 2 2 3 1 0 101 30 12 2 0 0 0 0 0 19 47 33 65 22 9 0 0 0 0 0 0 0 0 0 0 2 0
1 2 2 2 2 2 2 2 3 3 3 3 2 3 3 2 0 111 114 35 19 14 0 26 11 8 61 42 44 11 2 0 0 0 0 0 0 0 0 0 0 0 0
0 1 1 3 3 3 1 1 3 4 3 3 3 3 3 0 0 7 169 166 128 103 101 102 92 15 43 22 64 46 20 2 1 0 0 0 0 0 0 0 0 0 0
1 1 1 1 1 1 4 3 2 3 5 4 2 4 2 1 1 0 26 59 260 239 179 175 161 0 0 0 1 12 3 3 1 0 0 0 0 0 0 0 0 0 0
1 1 1 1 0 2 1 2 3 3 3 4 5 3 3 3 4 2 14 10 226 335 238 194 191 6 1 0 1 0 1 1 0 0 0 0 0 1 1 2 1 0 1
0 1 0 0 0 1 1 2 2 3 5 3 4 2 1 0 1 0 6 32 20 323 266 234 271 124 15 0 1 0 3 0 0 0 1 1 2 1 1 1 2 2 2
0 0 0 0 0 1 2 1 2 2 3 5 5 4 3 2 1 1 0 0 0 319 244 251 346 135 61 8 1 1 0 0 0 3 0 1 4 3 9 5 8 1 0
0 0 0 0 0 0 2 1 1 1 1 2 4 4 6 4 2 4 9 8 18 18 14 6 223 143 96 0 0 0 0 0 0 1 0 0 6 5 10 8 5 2 0
0 0 1 0 0 0 2 3 0 0 0 0 0 1 2 4 1 3 1 4 12 14 11 14 21 21 20 12 5 1 0 0 2 6 1 0 11 9 9 7 7 5 0
0 0 0 0 0 0 2 2 0 0 0 0 0 0 0 3 3 4 5 6 1 4 6 4 3 4 5 2 2 3 0 0 0 0 3 1 15 9 8 7 4 7 2
0 0 0 0 0 0 1 0 0 1 0 1 0 0 1 2 3 4 3 5 4 4 2 3 1 0 3 0 0 1 2 1 1 0 5 0 10 4 3 5 2 1 4

GFSMA_con_mlcape_129.txt.gz
CAPE
1638 1449 1591 1471 1362 1455 1603 1566 1603 1383 1280 1299 1344 1229 1114 846 776 736 716 388 240 291 493 934 1298 1008 812 879 833 808 692 594 416 259 257 257 289 233 108 174 154 101 78
1517 1509 1449 1347 1212 1195 1058 1504 1353 1329 1383 1236 1199 1090 1061 1041 912 831 671 683 220 197 237 604 959 1059 952 701 629 802 836 708 568 327 195 183 121 181 181 110 146 107 62
1526 1415 1307 1194 1185 1080 812 1017 1017 970 1480 1197 990 1020 1007 1073 1009 871 772 716 703 352 190 344 814 765 636 732 586 732 835 790 625 399 247 145 93 135 90 71 108 96 58
27 704 854 779 524 483 627 719 795 960 1111 1168 1147 1016 946 820 1051 1112 1083 777 694 735 640 194 392 468 291 193 874 694 769 790 677 529 373 176 81 70 86 61 68 81 40
0 0 47 331 204 74 218 418 146 223 812 743 790 807 807 821 942 1045 1052 956 876 788 944 465 204 235 222 173 448 825 741 770 767 652 466 250 82 65 58 58 47 69 70
0 0 0 0 4 63 178 83 2 4 415 962 850 791 759 783 716 638 705 801 801 785 1020 785 600 329 214 206 397 632 797 804 728 674 563 329 150 76 52 46 34 53 90
0 0 0 0 0 2 3 27 115 62 46 165 148 176 327 522 495 415 508 546 629 667 728 710 575 592 611 205 177 365 563 714 745 684 492 402 267 139 67 16 5 35 72
0 0 0 0 0 0 0 1 2 4 3 69 79 140 54 147 179 250 346 406 397 408 414 390 416 291 487 669 461 122 381 552 513 564 504 222 239 138 61 0 0 20 47
0 0 0 0 0 0 0 0 2 2 9 40 41 67 78 66 72 103 133 106 97 137 135 148 122 175 233 413 396 247 121 275 684 647 512 260 175 127 24 0 0 8 39
0 0 0 0 0 0 0 0 0 2 2 2 54 38 28 50 26 41 21 16 3 20 37 41 63 108 113 234 323 373 225 95 189 555 544 311 290 187 135 51 0 24 50
1 2 3 1 1 1 0 3 0 0 1 3 3 40 6 8 37 82 18 2 10 0 2 1 4 60 87 77 217 288 84 63 45 107 274 342 232 175 103 19 0 2 27
0 1 0 0 0 1 0 1 0 0 1 1 2 3 7 10 0 57 40 5 0 0 6 0 0 23 68 55 103 195 136 35 33 37 58 59 43 37 14 0 23 13 45
0 1 3 0 0 2 4 2 2 2 0 0 1 1 2 2 32 27 47 37 3 0 0 0 0 2 67 108 98 63 70 36 17 16 2 0 0 0 0 0 0 0 33
1 1 1 1 1 1 2 4 4 4 4 1 1 2 2 0 0 35 40 86 38 1 0 0 0 0 22 40 72 62 56 1 5 13 8 0 0 0 0 0 0 0 0
1 0 1 2 2 1 2 2 3 3 1 2 3 2 2 2 0 2 61 85 61 12 1 0 0 0 45 104 69 65 37 27 0 0 3 0 0 0 0 0 0 0 0
2 2 1 1 1 2 2 3 3 3 2 2 3 3 3 2 2 1 12 47 68 39 12 5 0 0 38 60 83 57 35 14 0 0 0 0 0 0 0 0 0 0 0
3 3 3 2 2 2 3 2 2 2 4 4 3 3 4 3 2 3 0 24 33 40 9 86 58 51 20 42 50 37 36 5 1 0 0 0 0 0 0 0 0 0 0
3 3 3 5 4 3 5 4 3 2 3 4 3 3 5 6 2 2 9 8 50 19 26 29 122 100 83 216 223 82 35 11 3 0 0 0 0 0 0 0 0 0 0
2 2 3 4 3 3 2 0 2 2 2 2 2 3 4 2 2 3 3 12 9 52 27 40 60 330 151 198 152 79 16 6 4 0 0 0 0 0 0 0 0 0 0
3 3 4 4 4 3 2 1 2 2 2 3 3 3 3 2 3 3 4 4 16 9 43 56 52 87 56 27 67 27 1 2 1 0 0 0 0 0 0 0 0 0 0
1 2 2 2 4 3 2 1 1 0 1 2 2 3 2 4 0 1 3 4 6 16 22 25 11 61 6 1 18 2 43 1 0 0 0 1 1 2 3 3 1 1 0
1 1 1 0 1 2 2 2 1 0 0 1 2 2 2 4 4 2 3 3 0 0 10 33 18 32 57 66 13 19 23 0 0 1 0 0 4 2 7 4 2 1 1
0 0 0 0 0 1 2 2 1 0 0 0 0 1 2 2 2 3 3 5 9 7 6 1 0 6 29 97 181 109 23 0 0 0 2 0 8 4 9 9 9 5 1
0 0 0 0 0 1 0 2 1 0 0 0 0 0 0 1 2 2 2 4 5 5 3 3 4 5 7 8 10 6 54 0 0 1 1 0 13 4 8 8 5 4 1
0 0 0 0 0 0 0 0 0 0 0 0 0 0 0 1 3 2 2 3 3 0 2 2 1 3 8 7 2 3 0 0 0 0 3 0 11 5 7 7 5 6 3
0 0 0 1 0 0 1 0 0 0 0 0 0 0 3 1 2 2 1 2 1 1 2 2 3 1 3 4 4 4 2 1 0 0 7 1 9 3 3 1 2 3 4

GFSMA_con_mlcape_132.txt.gz
CAPE
1919 2037 1909 1809 1735 1807 1548 1563 1798 1829 1990 1857 1713 1526 1486 1329 1209 980 960 874 442 300 486 710 952 1023 595 466 617 720 725 724 552 373 291 360 258 198 215 236 164 226 161
1633 1700 1813 1849 1860 1922 1983 1702 1374 1538 1855 1482 1445 1618 1544 1347 1314 1287 1084 1029 610 257 232 399 686 896 1102 655 426 639 731 749 635 493 287 253 302 147 103 157 105 123 164
27 1186 1476 1456 1417 1713 1879 1600 1650 1300 1180 1512 1588 1489 1575 1727 1421 1357 1369 1251 1018 439 216 230 288 519 1061 924 366 399 626 713 678 544 438 261 245 176 116 96 51 58 120
0 0 289 991 1134 1203 1102 906 1292 1297 1055 1186 1358 1595 1509 1386 1578 1436 1410 1336 1293 989 494 393 282 346 709 784 651 469 394 555 699 667 542 362 242 175 124 87 87 52 53
0 0 0 0 0 332 589 709 834 1047 668 388 531 1086 1235 1414 1366 1335 1200 1256 1355 1271 1013 641 472 241 350 419 242 153 391 368 460 654 579 445 287 182 114 81 85 45 27
0 0 0 0 0 1 147 547 693 854 479 241 198 470 687 919 1115 1249 1232 1088 1181 1214 1359 1113 860 544 137 203 171 246 401 544 492 545 521 466 380 251 128 89 82 70 30
0 0 0 0 0 0 0 0 30 425 591 327 117 135 6 10 392 991 1256 1006 1000 1153 1263 1193 1185 1124 545 155 147 279 406 725 648 533 350 429 451 316 162 78 56 54 55
0 0 0 0 0 0 0 0 3 2 50 249 406 230 44 7 338 488 890 940 1040 1000 1084 1102 911 1130 982 927 615 227 297 452 638 521 380 234 297 288 161 79 36 36 46
0 0 0 0 0 0 0 0 0 0 4 2 91 331 103 101 225 570 543 727 863 804 760 741 741 734 832 911 758 647 272 197 278 489 275 124 194 142 148 91 69 48 23
0 0 0 0 0 0 0 0 0 0 1 2 3 0 205 320 157 110 153 272 384 371 279 231 225 226 193 305 435 560 477 160 122 194 390 228 111 113 63 59 47 22 1
0 0 0 1 0 0 0 2 2 1 0 0 0 3 1 159 367 149 25 36 74 36 47 31 49 79 107 65 112 269 202 167 145 91 197 499 394 150 97 61 20 14 0
0 0 0 1 1 3 3 1 2 3 0 1 0 2 2 1 53 99 87 62 27 32 40 25 43 15 27 25 38 56 96 132 110 81 68 134 348 359 120 55 86 49 17
0 0 1 1 1 1 4 3 4 0 0 0 2 0 0 0 0 3 36 94 80 89 72 28 4 8 3 21 18 25 39 52 56 42 49 61 83 171 200 133 102 82 17
1 2 2 1 6 6 6 6 5 5 6 2 3 2 1 1 0 0 3 25 113 91 79 86 76 16 0 0 20 15 93 22 16 2 12 37 36 47 66 59 54 23 0
2 1 2 1 4 6 6 8 6 5 5 3 2 4 4 1 3 0 2 1 50 28 10 104 174 43 0 0 0 34 98 67 6 0 0 0 15 21 8 0 0 0 0
2 2 3 1 0 0 3 7 6 6 5 3 3 2 3 6 3 2 1 2 0 42 10 11 61 99 67 19 25 84 120 84 10 0 0 0 0 0 0 0 0 0 0
2 1 3 1 1 1 2 6 4 3 3 5 6 4 4 5 4 3 1 8 4 8 13 7 23 143 295 96 102 110 126 150 96 0 0 0 0 0 0 0 0 0 0
2 1 5 3 4 2 2 2 2 8 6 5 5 4 3 2 2 3 3 3 8 6 19 19 35 51 230 308 236 279 343 131 183 40 0 0 0 0 0 0 0 0 0
2 1 2 4 7 9 2 4 6 4 2 4 5 5 4 3 3 4 3 6 4 10 19 25 60 11 112 234 323 331 453 380 269 85 6 0 0 0 0 0 0 0 0
3 2 3 1 9 8 6 5 6 4 2 1 2 2 2 3 5 5 2 5 7 3 25 25 24 43 87 130 255 320 385 254 86 13 0 0 0 0 0 0 0 0 0
3 2 3 2 4 4 3 5 4 4 3 0 0 1 1 3 2 2 2 2 3 3 7 34 9 27 64 105 46 142 220 104 18 0 0 0 0 0 0 1 2 0 0
1 1 2 2 2 2 2 2 3 4 3 0 0 0 0 2 1 1 4 5 2 0 0 4 23 20 4 57 88 55 94 123 0 1 0 0 0 0 0 2 5 2 0
2 0 0 0 0 2 0 1 2 2 1 0 0 0 0 1 1 1 1 3 6 5 5 2 1 3 1 4 4 0 7 20 4 7 0 0 2 1 3 4 7 8 2
2 0 0 0 0 2 0 0 0 1 0 0 0 0 0 0 1 1 2 2 2 2 3 3 6 6 5 6 4 4 0 1 0 1 1 0 4 1 11 8 8 8 8
0 0 0 0 0 0 0 0 0 0 0 0 0 0 0 0 3 2 2 1 2 1 1 2 3 2 3 5 5 0 0 1 0 2 4 2 11 8 16 12 7 7 6
1 0 0 0 0 0 0 0 0 0 0 0 0 0 1 0 0 1 2 3 2 1 2 1 0 0 1 2 3 4 7 0 1 2 4 2 4 4 1 7 2 2 2

GFSMA_con_mlcape_138.txt.gz
CAPE
241 552 1504 1735 1246 1343 1187 1087 975 1135 1210 1288 1420 865 1334 1311 923 790 645 610 699 728 735 765 871 986 836 634 537 644 752 778 664 585 389 245 259 270 214 181 142 153 277
0 0 45 586 1112 859 1212 1044 854 759 488 289 363 1048 1218 1426 1427 1008 1273 593 637 696 724 669 753 1146 1204 1067 758 578 761 799 802 649 548 358 224 284 232 193 147 129 146
0 0 0 8 32 10 32 307 521 316 33 0 26 24 788 1035 1201 1404 1496 1363 817 709 728 672 482 605 1067 1138 811 617 562 637 726 735 582 461 286 294 274 202 167 119 101
0 0 0 0 0 0 8 60 351 502 29 5 0 0 153 523 665 883 1188 1208 1135 1006 608 653 602 391 411 869 1141 651 426 423 595 641 629 549 390 265 249 200 134 73 62
0 0 0 0 0 0 0 0 0 28 343 201 23 129 128 233 549 610 653 906 1214 1154 1213 642 588 500 288 258 598 1004 749 492 467 536 595 571 483 361 250 162 137 92 41
0 0 0 0 0 0 0 0 0 0 13 39 296 539 706 729 736 694 815 899 1069 882 831 1047 711 352 363 319 252 429 921 784 533 471 490 566 524 445 333 226 120 93 50
0 0 0 0 0 0 0 0 0 0 0 0 42 216 258 292 415 482 589 655 698 791 557 1023 1126 747 499 328 301 367 635 1088 816 518 455 433 443 469 394 311 209 138 83
0 0 0 0 0 0 0 0 0 0 0 0 4 26 33 62 187 359 417 445 415 424 632 506 809 1222 1076 643 422 345 574 1018 978 703 590 385 342 357 408 368 284 161 102
0 0 0 0 0 0 0 0 0 0 0 0 0 5 21 46 68 85 251 388 356 211 144 135 313 510 925 1072 814 378 352 540 732 641 684 411 330 292 285 343 326 219 124
0 0 0 0 0 0 0 0 1 0 0 0 0 0 2 9 0 0 10 1 130 209 153 81 171 393 410 565 751 478 252 252 338 563 678 578 392 310 252 243 280 249 146
0 0 0 0 0 1 1 0 0 0 0 0 1 0 0 0 0 4 0 0 0 131 230 294 285 378 398 582 548 626 376 121 141 267 448 673 553 355 274 222 211 206 191
0 0 1 1 2 1 1 2 2 1 1 2 0 0 0 1 0 0 0 0 0 0 31 143 305 535 625 667 730 601 316 162 61 102 155 387 603 487 365 248 218 171 177
0 1 0 2 1 2 1 1 2 3 3 1 2 4 1 0 0 0 2 0 0 0 0 0 1 213 456 520 284 160 171 43 93 56 62 113 270 414 388 334 238 185 158
1 0 1 2 2 2 1 0 0 1 1 3 1 2 2 4 4 1 0 4 0 0 0 0 0 9 265 221 131 69 29 26 0 11 23 78 88 161 271 293 270 221 192
1 1 0 0 0 0 0 0 2 1 2 2 3 2 2 1 1 5 2 2 3 0 0 0 0 0 0 117 182 88 38 26 1 12 54 84 77 88 125 187 221 228 224
1 0 0 0 0 0 0 0 0 1 0 0 0 0 0 1 2 7 9 13 10 6 1 2 0 0 0 0 51 104 24 33 10 3 0 13 39 57 46 96 142 186 191
1 0 0 0 1 0 0 0 0 0 0 0 3 2 0 0 2 1 2 2 9 14 4 3 5 0 0 4 0 0 146 43 104 0 0 0 0 13 16 5 67 118 139
0 1 0 0 1 0 0 0 1 0 0 0 0 0 1 4 0 1 2 2 6 2 8 5 2 1 2 0 0 2 117 46 89 59 0 0 0 0 0 0 11 36 55
0 0 0 0 0 0 1 0 4 0 0 0 1 0 0 0 0 1 1 1 5 4 9 14 8 4 1 1 0 0 13 83 58 0 1 1 0 0 0 0 1 2 4
0 0 0 0 0 0 0 0 1 0 0 0 1 1 0 1 0 1 1 1 2 2 2 5 8 10 0 0 1 4 16 39 40 83 33 2 0 0 0 0 0 0 0
0 0 0 0 0 0 0 0 0 1 0 0 1 0 1 4 2 2 1 0 0 2 3 3 7 4 2 2 5 6 5 0 19 152 69 9 3 0 0 0 0 0 0
0 0 0 0 0 0 0 2 2 2 1 0 0 0 0 0 1 2 2 1 1 0 3 3 6 4 7 10 10 9 4 3 9 0 1 100 3 1 1 0 0 0 0
0 0 0 0 0 0 0 1 0 0 0 0 0 0 0 0 0 0 0 1 0 1 0 0 2 2 4 3 7 6 7 5 5 1 0 0 0 0 1 2 3 1 3
0 0 0 0 0 0 0 0 2 0 0 0 0 0 0 0 0 0 0 0 0 0 1 1 0 0 1 1 2 4 5 3 0 3 4 0 5 0 6 6 7 4 2
0 0 0 0 0 0 0 0 0 0 0 0 0 0 0 0 2 1 0 0 0 0 0 2 1 1 1 2 1 0 3 2 2 5 1 7 4 2 3 7 3 3 2
0 0 0 0 0 0 0 0 0 0 0 0 0 0 0 0 0 0 0 0 0 1 0 0 0 0 0 0 1 0 0 2 3 0 0 4 2 3 1 3 3 1 1